Wetterdaten: Sonntag, 10.05.2015
Datum Zeit Temp. Aussen +5cm Feuchte Auss Luftdruck Regen Sonnenschein Regendauer Solar Windben
10.05.2015 00:00 13,1 C 11,1 C 80 % 1020,8 hPa 0,0 l/m 0 min 0 min 0 W/m 10,5 km/h (2 Bft)
10.05.2015 00:02 13,1 C 11,1 C 80 % 1020,9 hPa 0,0 l/m 0 min 0 min 0 W/m 8,4 km/h (2 Bft)
10.05.2015 00:06 13,0 C 11,1 C 80 % 1021,0 hPa 0,0 l/m 0 min 0 min 0 W/m 14,6 km/h (3 Bft)
10.05.2015 00:08 13,0 C 11,1 C 81 % 1021,0 hPa 0,0 l/m 0 min 0 min 0 W/m 16,7 km/h (3 Bft)
10.05.2015 00:10 13,0 C 11,1 C 81 % 1021,1 hPa 0,0 l/m 0 min 0 min 0 W/m 14,6 km/h (3 Bft)
10.05.2015 00:12 13,0 C 11,1 C 81 % 1021,1 hPa 0,0 l/m 0 min 0 min 0 W/m 10,5 km/h (2 Bft)
10.05.2015 00:14 12,9 C 11,1 C 81 % 1021,2 hPa 0,0 l/m 0 min 0 min 0 W/m 18,8 km/h (3 Bft)
10.05.2015 00:16 12,9 C 11,1 C 81 % 1021,2 hPa 0,0 l/m 0 min 0 min 0 W/m 14,6 km/h (3 Bft)
10.05.2015 00:18 12,9 C 11,1 C 81 % 1021,2 hPa 0,0 l/m 0 min 0 min 0 W/m 12,6 km/h (3 Bft)
10.05.2015 00:20 12,9 C 11,1 C 81 % 1021,2 hPa 0,0 l/m 0 min 0 min 0 W/m 16,7 km/h (3 Bft)
10.05.2015 00:22 12,9 C 11,1 C 81 % 1021,2 hPa 0,0 l/m 0 min 0 min 0 W/m 14,6 km/h (3 Bft)
10.05.2015 00:24 12,9 C 11,1 C 82 % 1021,3 hPa 0,0 l/m 0 min 0 min 0 W/m 16,7 km/h (3 Bft)
10.05.2015 00:26 12,9 C 11,1 C 82 % 1021,3 hPa 0,0 l/m 0 min 0 min 0 W/m 10,5 km/h (2 Bft)
10.05.2015 00:28 12,8 C 11,1 C 82 % 1021,3 hPa 0,0 l/m 0 min 0 min 0 W/m 16,7 km/h (3 Bft)
10.05.2015 00:30 12,8 C 11,1 C 82 % 1021,3 hPa 0,0 l/m 0 min 0 min 0 W/m 12,6 km/h (3 Bft)
10.05.2015 00:32 12,8 C 11,1 C 82 % 1021,3 hPa 0,0 l/m 0 min 0 min 0 W/m 14,6 km/h (3 Bft)
10.05.2015 00:34 12,8 C 11,1 C 82 % 1021,3 hPa 0,0 l/m 0 min 0 min 0 W/m 12,6 km/h (3 Bft)
10.05.2015 00:36 12,8 C 11,1 C 82 % 1021,3 hPa 0,0 l/m 0 min 0 min 0 W/m 14,6 km/h (3 Bft)
10.05.2015 00:38 12,8 C 11,1 C 82 % 1021,4 hPa 0,0 l/m 0 min 0 min 0 W/m 16,7 km/h (3 Bft)
10.05.2015 00:40 12,8 C 11,1 C 82 % 1021,3 hPa 0,0 l/m 0 min 0 min 0 W/m 18,8 km/h (3 Bft)
10.05.2015 00:42 12,8 C 11,1 C 82 % 1021,3 hPa 0,0 l/m 0 min 0 min 0 W/m 12,6 km/h (3 Bft)
10.05.2015 00:44 12,8 C 11,1 C 82 % 1021,3 hPa 0,0 l/m 0 min 0 min 0 W/m 8,4 km/h (2 Bft)
10.05.2015 00:46 12,8 C 11,1 C 82 % 1021,3 hPa 0,0 l/m 0 min 0 min 0 W/m 14,6 km/h (3 Bft)
10.05.2015 00:48 12,8 C 11,1 C 82 % 1021,4 hPa 0,0 l/m 0 min 0 min 0 W/m 16,7 km/h (3 Bft)
10.05.2015 00:50 12,7 C 11,1 C 82 % 1021,4 hPa 0,0 l/m 0 min 0 min 0 W/m 14,6 km/h (3 Bft)
10.05.2015 00:52 12,7 C 11,1 C 82 % 1021,5 hPa 0,0 l/m 0 min 0 min 0 W/m 23,0 km/h (4 Bft)
10.05.2015 00:54 12,7 C 11,1 C 83 % 1021,5 hPa 0,0 l/m 0 min 0 min 0 W/m 16,7 km/h (3 Bft)
10.05.2015 00:56 12,7 C 11,1 C 83 % 1021,5 hPa 0,0 l/m 0 min 0 min 0 W/m 16,7 km/h (3 Bft)
10.05.2015 00:58 12,7 C 11,1 C 83 % 1021,4 hPa 0,0 l/m 0 min 0 min 0 W/m 16,7 km/h (3 Bft)
10.05.2015 01:00 12,7 C 11,1 C 83 % 1021,4 hPa 0,0 l/m 0 min 0 min 0 W/m 16,7 km/h (3 Bft)
10.05.2015 01:02 12,7 C 11,1 C 83 % 1021,4 hPa 0,0 l/m 0 min 0 min 0 W/m 20,9 km/h (4 Bft)
10.05.2015 01:04 12,7 C 11,1 C 83 % 1021,5 hPa 0,0 l/m 0 min 0 min 0 W/m 20,9 km/h (4 Bft)
10.05.2015 01:06 12,6 C 11,1 C 83 % 1021,5 hPa 0,0 l/m 0 min 0 min 0 W/m 25,1 km/h (4 Bft)
10.05.2015 01:08 12,6 C 11,1 C 83 % 1021,6 hPa 0,0 l/m 0 min 0 min 0 W/m 23,0 km/h (4 Bft)
10.05.2015 01:10 12,6 C 11,1 C 83 % 1021,6 hPa 0,0 l/m 0 min 0 min 0 W/m 23,0 km/h (4 Bft)
10.05.2015 01:12 12,6 C 11,1 C 83 % 1021,6 hPa 0,0 l/m 0 min 0 min 0 W/m 23,0 km/h (4 Bft)
10.05.2015 01:14 12,6 C 11,1 C 83 % 1021,7 hPa 0,0 l/m 0 min 0 min 0 W/m 16,7 km/h (3 Bft)
10.05.2015 01:16 12,6 C 11,1 C 83 % 1021,8 hPa 0,0 l/m 0 min 0 min 0 W/m 18,8 km/h (3 Bft)
10.05.2015 01:18 12,6 C 11,1 C 83 % 1021,7 hPa 0,0 l/m 0 min 0 min 0 W/m 25,1 km/h (4 Bft)
10.05.2015 01:20 12,6 C 11,1 C 83 % 1021,8 hPa 0,0 l/m 0 min 0 min 0 W/m 18,8 km/h (3 Bft)
10.05.2015 01:22 12,6 C 11,1 C 83 % 1021,9 hPa 0,0 l/m 0 min 0 min 0 W/m 16,7 km/h (3 Bft)
10.05.2015 01:24 12,6 C 11,1 C 83 % 1021,9 hPa 0,0 l/m 0 min 0 min 0 W/m 14,6 km/h (3 Bft)
10.05.2015 01:26 12,6 C 11,1 C 83 % 1022,0 hPa 0,0 l/m 0 min 0 min 0 W/m 10,5 km/h (2 Bft)
10.05.2015 01:28 12,6 C 11,1 C 83 % 1022,0 hPa 0,0 l/m 0 min 0 min 0 W/m 14,6 km/h (3 Bft)
10.05.2015 01:30 12,6 C 11,1 C 84 % 1022,0 hPa 0,0 l/m 0 min 0 min 0 W/m 14,6 km/h (3 Bft)
10.05.2015 01:32 12,6 C 11,1 C 84 % 1022,1 hPa 0,0 l/m 0 min 0 min 0 W/m 12,6 km/h (3 Bft)
10.05.2015 01:34 12,6 C 11,1 C 84 % 1022,1 hPa 0,0 l/m 0 min 0 min 0 W/m 12,6 km/h (3 Bft)
10.05.2015 01:36 12,6 C 11,1 C 84 % 1022,1 hPa 0,0 l/m 0 min 0 min 0 W/m 14,6 km/h (3 Bft)
10.05.2015 01:38 12,6 C 11,1 C 84 % 1022,1 hPa 0,0 l/m 0 min 0 min 0 W/m 16,7 km/h (3 Bft)
10.05.2015 01:40 12,6 C 11,1 C 84 % 1022,2 hPa 0,0 l/m 0 min 0 min 0 W/m 16,7 km/h (3 Bft)
10.05.2015 01:42 12,6 C 11,1 C 84 % 1022,1 hPa 0,0 l/m 0 min 0 min 0 W/m 14,6 km/h (3 Bft)
10.05.2015 01:44 12,6 C 11,1 C 84 % 1022,1 hPa 0,0 l/m 0 min 0 min 0 W/m 12,6 km/h (3 Bft)
10.05.2015 01:46 12,6 C 11,1 C 84 % 1022,1 hPa 0,0 l/m 0 min 0 min 0 W/m 10,5 km/h (2 Bft)
10.05.2015 01:48 12,6 C 11,1 C 84 % 1022,1 hPa 0,0 l/m 0 min 0 min 0 W/m 10,5 km/h (2 Bft)
10.05.2015 01:50 12,6 C 11,1 C 84 % 1022,1 hPa 0,0 l/m 0 min 0 min 0 W/m 10,5 km/h (2 Bft)
10.05.2015 01:52 12,5 C 11,1 C 84 % 1022,2 hPa 0,0 l/m 0 min 0 min 0 W/m 10,5 km/h (2 Bft)
10.05.2015 01:54 12,5 C 11,1 C 84 % 1022,2 hPa 0,0 l/m 0 min 0 min 0 W/m 10,5 km/h (2 Bft)
10.05.2015 01:56 12,5 C 11,1 C 84 % 1022,2 hPa 0,0 l/m 0 min 0 min 0 W/m 16,7 km/h (3 Bft)
10.05.2015 01:58 12,5 C 11,1 C 84 % 1022,2 hPa 0,0 l/m 0 min 0 min 0 W/m 10,5 km/h (2 Bft)
10.05.2015 02:00 12,5 C 11,1 C 84 % 1022,3 hPa 0,0 l/m 0 min 0 min 0 W/m 12,6 km/h (3 Bft)
10.05.2015 02:02 12,5 C 11,1 C 84 % 1022,2 hPa 0,0 l/m 0 min 0 min 0 W/m 6,3 km/h (2 Bft)
10.05.2015 02:04 12,5 C 11,1 C 84 % 1022,2 hPa 0,0 l/m 0 min 0 min 0 W/m 8,4 km/h (2 Bft)
10.05.2015 02:06 12,5 C 11,1 C 84 % 1022,2 hPa 0,0 l/m 0 min 0 min 0 W/m 10,5 km/h (2 Bft)
10.05.2015 02:08 12,4 C 11,1 C 84 % 1022,2 hPa 0,0 l/m 0 min 0 min 0 W/m 12,6 km/h (3 Bft)
10.05.2015 02:10 12,4 C 11,1 C 84 % 1022,2 hPa 0,0 l/m 0 min 0 min 0 W/m 12,6 km/h (3 Bft)
10.05.2015 02:12 12,4 C 11,1 C 84 % 1022,2 hPa 0,0 l/m 0 min 0 min 0 W/m 12,6 km/h (3 Bft)
10.05.2015 02:14 12,4 C 11,1 C 84 % 1022,3 hPa 0,0 l/m 0 min 0 min 0 W/m 12,6 km/h (3 Bft)
10.05.2015 02:16 12,4 C 11,1 C 84 % 1022,2 hPa 0,0 l/m 0 min 0 min 0 W/m 8,4 km/h (2 Bft)
10.05.2015 02:18 12,4 C 11,1 C 84 % 1022,3 hPa 0,0 l/m 0 min 0 min 0 W/m 10,5 km/h (2 Bft)
10.05.2015 02:20 12,4 C 11,1 C 84 % 1022,3 hPa 0,0 l/m 0 min 0 min 0 W/m 8,4 km/h (2 Bft)
10.05.2015 02:22 12,4 C 11,1 C 84 % 1022,2 hPa 0,0 l/m 0 min 0 min 0 W/m 10,5 km/h (2 Bft)
10.05.2015 02:24 12,4 C 11,1 C 84 % 1022,4 hPa 0,0 l/m 0 min 0 min 0 W/m 10,5 km/h (2 Bft)
10.05.2015 02:26 12,4 C 11,1 C 85 % 1022,3 hPa 0,0 l/m 0 min 0 min 0 W/m 8,4 km/h (2 Bft)
10.05.2015 02:28 12,4 C 11,1 C 85 % 1022,4 hPa 0,0 l/m 0 min 0 min 0 W/m 8,4 km/h (2 Bft)
10.05.2015 02:30 12,4 C 11,1 C 84 % 1022,4 hPa 0,0 l/m 0 min 0 min 0 W/m 6,3 km/h (2 Bft)
10.05.2015 02:32 12,4 C 11,1 C 84 % 1022,3 hPa 0,0 l/m 0 min 0 min 0 W/m 8,4 km/h (2 Bft)
10.05.2015 02:34 12,4 C 11,1 C 85 % 1022,4 hPa 0,0 l/m 0 min 0 min 0 W/m 6,3 km/h (2 Bft)
10.05.2015 02:36 12,4 C 11,1 C 85 % 1022,3 hPa 0,0 l/m 0 min 0 min 0 W/m 6,3 km/h (2 Bft)
10.05.2015 02:38 12,3 C 10,6 C 85 % 1022,4 hPa 0,0 l/m 0 min 0 min 0 W/m 8,4 km/h (2 Bft)
10.05.2015 02:40 12,3 C 10,6 C 85 % 1022,4 hPa 0,0 l/m 0 min 0 min 0 W/m 10,5 km/h (2 Bft)
10.05.2015 02:42 12,3 C 10,6 C 85 % 1022,4 hPa 0,0 l/m 0 min 0 min 0 W/m 8,4 km/h (2 Bft)
10.05.2015 02:44 12,3 C 10,6 C 85 % 1022,5 hPa 0,0 l/m 0 min 0 min 0 W/m 12,6 km/h (3 Bft)
10.05.2015 02:46 12,3 C 10,6 C 85 % 1022,5 hPa 0,0 l/m 0 min 0 min 0 W/m 14,6 km/h (3 Bft)
10.05.2015 02:48 12,2 C 10,6 C 85 % 1022,5 hPa 0,0 l/m 0 min 0 min 0 W/m 12,6 km/h (3 Bft)
10.05.2015 02:50 12,2 C 10,6 C 85 % 1022,5 hPa 0,0 l/m 0 min 0 min 0 W/m 14,6 km/h (3 Bft)
10.05.2015 02:52 12,2 C 10,6 C 85 % 1022,5 hPa 0,0 l/m 0 min 0 min 0 W/m 10,5 km/h (2 Bft)
10.05.2015 02:54 12,1 C 10,6 C 85 % 1022,6 hPa 0,0 l/m 0 min 0 min 0 W/m 8,4 km/h (2 Bft)
10.05.2015 02:56 12,1 C 10,6 C 85 % 1022,7 hPa 0,0 l/m 0 min 0 min 0 W/m 8,4 km/h (2 Bft)
10.05.2015 02:58 12,1 C 10,6 C 85 % 1022,7 hPa 0,0 l/m 0 min 0 min 0 W/m 8,4 km/h (2 Bft)
10.05.2015 03:00 12,1 C 10,6 C 85 % 1022,7 hPa 0,0 l/m 0 min 0 min 0 W/m 10,5 km/h (2 Bft)
10.05.2015 03:02 12,0 C 10,6 C 85 % 1022,7 hPa 0,0 l/m 0 min 0 min 0 W/m 4,2 km/h (1 Bft)
10.05.2015 03:04 12,0 C 10,6 C 85 % 1022,7 hPa 0,0 l/m 0 min 0 min 0 W/m 10,5 km/h (2 Bft)
10.05.2015 03:06 11,9 C 10,0 C 85 % 1022,8 hPa 0,0 l/m 0 min 0 min 0 W/m 6,3 km/h (2 Bft)
10.05.2015 03:08 11,9 C 10,0 C 85 % 1022,8 hPa 0,0 l/m 0 min 0 min 0 W/m 8,4 km/h (2 Bft)
10.05.2015 03:10 11,9 C 10,0 C 85 % 1023,0 hPa 0,0 l/m 0 min 0 min 0 W/m 14,6 km/h (3 Bft)
10.05.2015 03:12 11,8 C 10,0 C 85 % 1023,1 hPa 0,0 l/m 0 min 0 min 0 W/m 6,3 km/h (2 Bft)
10.05.2015 03:14 11,8 C 10,0 C 85 % 1023,1 hPa 0,0 l/m 0 min 0 min 0 W/m 10,5 km/h (2 Bft)
10.05.2015 03:16 11,8 C 10,0 C 85 % 1023,1 hPa 0,0 l/m 0 min 0 min 0 W/m 10,5 km/h (2 Bft)
10.05.2015 03:18 11,7 C 10,0 C 85 % 1023,2 hPa 0,0 l/m 0 min 0 min 0 W/m 8,4 km/h (2 Bft)
10.05.2015 03:20 11,7 C 10,0 C 85 % 1023,2 hPa 0,0 l/m 0 min 0 min 0 W/m 14,6 km/h (3 Bft)
10.05.2015 03:22 11,6 C 10,0 C 86 % 1023,4 hPa 0,0 l/m 0 min 0 min 0 W/m 10,5 km/h (2 Bft)
10.05.2015 03:24 11,6 C 10,0 C 86 % 1023,4 hPa 0,0 l/m 0 min 0 min 0 W/m 12,6 km/h (3 Bft)
10.05.2015 03:26 11,5 C 10,0 C 86 % 1023,4 hPa 0,0 l/m 0 min 0 min 0 W/m 14,6 km/h (3 Bft)
10.05.2015 03:28 11,5 C 10,0 C 86 % 1023,4 hPa 0,0 l/m 0 min 0 min 0 W/m 12,6 km/h (3 Bft)
10.05.2015 03:30 11,5 C 10,0 C 86 % 1023,5 hPa 0,0 l/m 0 min 0 min 0 W/m 10,5 km/h (2 Bft)
10.05.2015 03:32 11,4 C 10,0 C 87 % 1023,5 hPa 0,0 l/m 0 min 0 min 0 W/m 10,5 km/h (2 Bft)
10.05.2015 03:34 11,4 C 10,0 C 87 % 1023,5 hPa 0,0 l/m 0 min 0 min 0 W/m 10,5 km/h (2 Bft)
10.05.2015 03:36 11,4 C 10,0 C 87 % 1023,6 hPa 0,0 l/m 0 min 0 min 0 W/m 14,6 km/h (3 Bft)
10.05.2015 03:38 11,3 C 10,0 C 87 % 1023,6 hPa 0,0 l/m 0 min 0 min 0 W/m 12,6 km/h (3 Bft)
10.05.2015 03:40 11,3 C 10,0 C 87 % 1023,6 hPa 0,0 l/m 0 min 0 min 0 W/m 18,8 km/h (3 Bft)
10.05.2015 03:42 11,3 C 10,0 C 87 % 1023,7 hPa 0,0 l/m 0 min 0 min 0 W/m 8,4 km/h (2 Bft)
10.05.2015 03:44 11,3 C 10,0 C 87 % 1023,7 hPa 0,0 l/m 0 min 0 min 0 W/m 12,6 km/h (3 Bft)
10.05.2015 03:46 11,2 C 10,0 C 87 % 1023,6 hPa 0,0 l/m 0 min 0 min 0 W/m 10,5 km/h (2 Bft)
10.05.2015 03:48 11,2 C 10,0 C 88 % 1023,7 hPa 0,0 l/m 0 min 0 min 0 W/m 6,3 km/h (2 Bft)
10.05.2015 03:50 11,2 C 10,0 C 88 % 1023,7 hPa 0,0 l/m 0 min 0 min 0 W/m 6,3 km/h (2 Bft)
10.05.2015 03:52 11,2 C 10,0 C 88 % 1023,7 hPa 0,0 l/m 0 min 0 min 0 W/m 4,2 km/h (1 Bft)
10.05.2015 03:54 11,2 C 10,0 C 88 % 1023,8 hPa 0,0 l/m 0 min 0 min 0 W/m 8,4 km/h (2 Bft)
10.05.2015 03:56 11,2 C 10,0 C 88 % 1023,7 hPa 0,0 l/m 0 min 0 min 0 W/m 10,5 km/h (2 Bft)
10.05.2015 03:58 11,1 C 10,0 C 88 % 1023,7 hPa 0,0 l/m 0 min 0 min 0 W/m 10,5 km/h (2 Bft)
10.05.2015 04:00 11,1 C 10,0 C 88 % 1023,7 hPa 0,0 l/m 0 min 0 min 0 W/m 12,6 km/h (3 Bft)
10.05.2015 04:02 11,1 C 10,0 C 88 % 1023,7 hPa 0,0 l/m 0 min 0 min 0 W/m 12,6 km/h (3 Bft)
10.05.2015 04:04 11,1 C 10,0 C 88 % 1023,8 hPa 0,0 l/m 0 min 0 min 0 W/m 10,5 km/h (2 Bft)
10.05.2015 04:06 11,1 C 10,0 C 88 % 1023,8 hPa 0,0 l/m 0 min 0 min 0 W/m 8,4 km/h (2 Bft)
10.05.2015 04:08 11,0 C 10,0 C 88 % 1023,8 hPa 0,0 l/m 0 min 0 min 0 W/m 6,3 km/h (2 Bft)
10.05.2015 04:10 11,0 C 10,0 C 88 % 1023,8 hPa 0,0 l/m 0 min 0 min 0 W/m 16,7 km/h (3 Bft)
10.05.2015 04:12 10,9 C 10,0 C 88 % 1023,8 hPa 0,0 l/m 0 min 0 min 0 W/m 10,5 km/h (2 Bft)
10.05.2015 04:14 10,9 C 10,0 C 88 % 1023,8 hPa 0,0 l/m 0 min 0 min 0 W/m 8,4 km/h (2 Bft)
10.05.2015 04:16 10,9 C 10,0 C 89 % 1023,9 hPa 0,0 l/m 0 min 0 min 0 W/m 12,6 km/h (3 Bft)
10.05.2015 04:18 10,9 C 10,0 C 89 % 1023,9 hPa 0,0 l/m 0 min 0 min 0 W/m 6,3 km/h (2 Bft)
10.05.2015 04:20 10,8 C 10,0 C 89 % 1023,9 hPa 0,0 l/m 0 min 0 min 0 W/m 14,6 km/h (3 Bft)
10.05.2015 04:22 10,8 C 10,0 C 89 % 1023,9 hPa 0,0 l/m 0 min 0 min 0 W/m 8,4 km/h (2 Bft)
10.05.2015 04:24 10,8 C 10,0 C 89 % 1023,9 hPa 0,0 l/m 0 min 0 min 0 W/m 8,4 km/h (2 Bft)
10.05.2015 04:26 10,8 C 10,0 C 89 % 1024,0 hPa 0,0 l/m 0 min 0 min 0 W/m 8,4 km/h (2 Bft)
10.05.2015 04:28 10,7 C 10,0 C 89 % 1023,9 hPa 0,0 l/m 0 min 0 min 0 W/m 6,3 km/h (2 Bft)
10.05.2015 04:30 10,7 C 10,0 C 89 % 1023,9 hPa 0,0 l/m 0 min 0 min 0 W/m 10,5 km/h (2 Bft)
10.05.2015 04:32 10,7 C 10,0 C 89 % 1023,9 hPa 0,0 l/m 0 min 0 min 0 W/m 6,3 km/h (2 Bft)
10.05.2015 04:34 10,7 C 10,0 C 89 % 1024,0 hPa 0,0 l/m 0 min 0 min 0 W/m 8,4 km/h (2 Bft)
10.05.2015 04:36 10,7 C 10,0 C 89 % 1024,0 hPa 0,0 l/m 0 min 0 min 0 W/m 10,5 km/h (2 Bft)
10.05.2015 04:38 10,7 C 10,0 C 89 % 1024,0 hPa 0,0 l/m 0 min 0 min 0 W/m 8,4 km/h (2 Bft)
10.05.2015 04:40 10,6 C 10,0 C 89 % 1024,1 hPa 0,0 l/m 0 min 0 min 0 W/m 10,5 km/h (2 Bft)
10.05.2015 04:42 10,6 C 10,0 C 89 % 1024,1 hPa 0,0 l/m 0 min 0 min 0 W/m 6,3 km/h (2 Bft)
10.05.2015 04:44 10,6 C 10,0 C 89 % 1024,1 hPa 0,0 l/m 0 min 0 min 0 W/m 4,2 km/h (1 Bft)
10.05.2015 04:46 10,6 C 10,0 C 89 % 1024,1 hPa 0,0 l/m 0 min 0 min 0 W/m 6,3 km/h (2 Bft)
10.05.2015 04:48 10,6 C 10,0 C 89 % 1024,1 hPa 0,0 l/m 0 min 0 min 0 W/m 10,5 km/h (2 Bft)
10.05.2015 04:50 10,6 C 10,0 C 89 % 1024,1 hPa 0,0 l/m 0 min 0 min 0 W/m 4,2 km/h (1 Bft)
10.05.2015 04:52 10,5 C 10,0 C 89 % 1024,1 hPa 0,0 l/m 0 min 0 min 0 W/m 12,6 km/h (3 Bft)
10.05.2015 04:54 10,5 C 10,0 C 89 % 1024,1 hPa 0,0 l/m 0 min 0 min 0 W/m 10,5 km/h (2 Bft)
10.05.2015 04:56 10,5 C 10,0 C 90 % 1024,1 hPa 0,0 l/m 0 min 0 min 0 W/m 14,6 km/h (3 Bft)
10.05.2015 04:58 10,5 C 10,0 C 89 % 1024,1 hPa 0,0 l/m 0 min 0 min 0 W/m 8,4 km/h (2 Bft)
10.05.2015 05:00 10,4 C 9,4 C 90 % 1024,2 hPa 0,0 l/m 0 min 0 min 0 W/m 6,3 km/h (2 Bft)
10.05.2015 05:02 10,4 C 9,4 C 90 % 1024,2 hPa 0,0 l/m 0 min 0 min 0 W/m 8,4 km/h (2 Bft)
10.05.2015 05:04 10,4 C 9,4 C 90 % 1024,3 hPa 0,0 l/m 0 min 0 min 0 W/m 4,2 km/h (1 Bft)
10.05.2015 05:06 10,4 C 9,4 C 90 % 1024,3 hPa 0,0 l/m 0 min 0 min 0 W/m 8,4 km/h (2 Bft)
10.05.2015 05:08 10,4 C 9,4 C 90 % 1024,3 hPa 0,0 l/m 0 min 0 min 0 W/m 6,3 km/h (2 Bft)
10.05.2015 05:10 10,3 C 9,4 C 90 % 1024,4 hPa 0,0 l/m 0 min 0 min 0 W/m 8,4 km/h (2 Bft)
10.05.2015 05:12 10,3 C 9,4 C 90 % 1024,4 hPa 0,0 l/m 0 min 0 min 0 W/m 8,4 km/h (2 Bft)
10.05.2015 05:14 10,3 C 9,4 C 90 % 1024,3 hPa 0,0 l/m 0 min 0 min 0 W/m 6,3 km/h (2 Bft)
10.05.2015 05:16 10,3 C 9,4 C 90 % 1024,3 hPa 0,0 l/m 0 min 0 min 0 W/m 6,3 km/h (2 Bft)
10.05.2015 05:18 10,3 C 9,4 C 90 % 1024,3 hPa 0,0 l/m 0 min 0 min 0 W/m 4,2 km/h (1 Bft)
10.05.2015 05:20 10,2 C 9,4 C 90 % 1024,4 hPa 0,0 l/m 0 min 0 min 0 W/m 6,3 km/h (2 Bft)
10.05.2015 05:22 10,2 C 9,4 C 90 % 1024,4 hPa 0,0 l/m 0 min 0 min 0 W/m 6,3 km/h (2 Bft)
10.05.2015 05:24 10,2 C 9,4 C 90 % 1024,4 hPa 0,0 l/m 0 min 0 min 0 W/m 4,2 km/h (1 Bft)
10.05.2015 05:26 10,2 C 9,4 C 90 % 1024,5 hPa 0,0 l/m 0 min 0 min 0 W/m 4,2 km/h (1 Bft)
10.05.2015 05:28 10,2 C 9,4 C 90 % 1024,5 hPa 0,0 l/m 0 min 0 min 0 W/m 6,3 km/h (2 Bft)
10.05.2015 05:30 10,1 C 9,4 C 90 % 1024,6 hPa 0,0 l/m 0 min 0 min 0 W/m 4,2 km/h (1 Bft)
10.05.2015 05:32 10,1 C 9,4 C 90 % 1024,5 hPa 0,0 l/m 0 min 0 min 0 W/m 4,2 km/h (1 Bft)
10.05.2015 05:34 10,1 C 9,4 C 90 % 1024,5 hPa 0,0 l/m 0 min 0 min 0 W/m 4,2 km/h (1 Bft)
10.05.2015 05:36 10,1 C 9,4 C 90 % 1024,6 hPa 0,0 l/m 0 min 0 min 0 W/m 4,2 km/h (1 Bft)
10.05.2015 05:38 10,0 C 9,4 C 90 % 1024,6 hPa 0,0 l/m 0 min 0 min 0 W/m 2,1 km/h (1 Bft)
10.05.2015 05:40 9,9 C 9,4 C 90 % 1024,7 hPa 0,0 l/m 0 min 0 min 0 W/m 4,2 km/h (1 Bft)
10.05.2015 05:42 9,9 C 9,4 C 90 % 1024,7 hPa 0,0 l/m 0 min 0 min 0 W/m 2,1 km/h (1 Bft)
10.05.2015 05:44 9,9 C 8,9 C 90 % 1024,7 hPa 0,0 l/m 0 min 0 min 0 W/m 2,1 km/h (1 Bft)
10.05.2015 05:46 9,9 C 8,9 C 90 % 1024,8 hPa 0,0 l/m 0 min 0 min 0 W/m 2,1 km/h (1 Bft)
10.05.2015 05:48 9,8 C 8,9 C 90 % 1024,8 hPa 0,0 l/m 0 min 0 min 2 W/m 4,2 km/h (1 Bft)
10.05.2015 05:50 9,8 C 8,9 C 90 % 1024,8 hPa 0,0 l/m 0 min 0 min 5 W/m 2,1 km/h (1 Bft)
10.05.2015 05:52 9,8 C 8,9 C 90 % 1024,9 hPa 0,0 l/m 0 min 0 min 6 W/m 2,1 km/h (1 Bft)
10.05.2015 05:54 9,8 C 8,9 C 90 % 1024,8 hPa 0,0 l/m 0 min 0 min 7 W/m 4,2 km/h (1 Bft)
10.05.2015 05:56 9,7 C 8,9 C 90 % 1024,9 hPa 0,0 l/m 0 min 0 min 7 W/m 4,2 km/h (1 Bft)
10.05.2015 05:58 9,7 C 8,9 C 90 % 1024,9 hPa 0,0 l/m 0 min 0 min 8 W/m 2,1 km/h (1 Bft)
10.05.2015 06:00 9,7 C 8,9 C 90 % 1024,9 hPa 0,0 l/m 0 min 0 min 9 W/m 4,2 km/h (1 Bft)
10.05.2015 06:02 9,6 C 8,9 C 90 % 1025,0 hPa 0,0 l/m 0 min 0 min 11 W/m 2,1 km/h (1 Bft)
10.05.2015 06:06 9,6 C 8,9 C 90 % 1025,0 hPa 0,0 l/m 0 min 0 min 12 W/m 4,2 km/h (1 Bft)
10.05.2015 06:08 9,5 C 8,9 C 90 % 1025,0 hPa 0,0 l/m 0 min 0 min 15 W/m 0,0 km/h (0 Bft)
10.05.2015 06:10 9,4 C 8,9 C 90 % 1025,1 hPa 0,0 l/m 0 min 0 min 17 W/m 2,1 km/h (1 Bft)
10.05.2015 06:12 9,4 C 8,9 C 90 % 1025,1 hPa 0,0 l/m 0 min 0 min 18 W/m 2,1 km/h (1 Bft)
10.05.2015 06:14 9,4 C 8,9 C 90 % 1025,2 hPa 0,0 l/m 2 min 0 min 21 W/m 2,1 km/h (1 Bft)
10.05.2015 06:16 9,4 C 8,9 C 90 % 1025,2 hPa 0,0 l/m 2 min 0 min 24 W/m 2,1 km/h (1 Bft)
10.05.2015 06:18 9,3 C 8,9 C 90 % 1025,2 hPa 0,0 l/m 2 min 0 min 25 W/m 2,1 km/h (1 Bft)
10.05.2015 06:20 9,3 C 8,9 C 90 % 1025,2 hPa 0,0 l/m 0 min 0 min 26 W/m 2,1 km/h (1 Bft)
10.05.2015 06:22 9,3 C 8,9 C 90 % 1025,2 hPa 0,0 l/m 0 min 0 min 28 W/m 2,1 km/h (1 Bft)
10.05.2015 06:24 9,2 C 8,9 C 90 % 1025,3 hPa 0,0 l/m 0 min 0 min 29 W/m 4,2 km/h (1 Bft)
10.05.2015 06:26 9,2 C 8,9 C 90 % 1025,3 hPa 0,0 l/m 0 min 0 min 31 W/m 4,2 km/h (1 Bft)
10.05.2015 06:28 9,2 C 8,9 C 90 % 1025,3 hPa 0,0 l/m 0 min 0 min 33 W/m 2,1 km/h (1 Bft)
10.05.2015 06:30 9,2 C 8,9 C 90 % 1025,3 hPa 0,0 l/m 0 min 0 min 35 W/m 2,1 km/h (1 Bft)
10.05.2015 06:32 9,2 C 8,9 C 90 % 1025,3 hPa 0,0 l/m 0 min 0 min 38 W/m 2,1 km/h (1 Bft)
10.05.2015 06:34 9,1 C 8,9 C 90 % 1025,3 hPa 0,0 l/m 0 min 0 min 40 W/m 4,2 km/h (1 Bft)
10.05.2015 06:36 9,1 C 8,9 C 90 % 1025,3 hPa 0,0 l/m 0 min 0 min 42 W/m 4,2 km/h (1 Bft)
10.05.2015 06:38 9,1 C 8,9 C 90 % 1025,3 hPa 0,0 l/m 0 min 0 min 45 W/m 2,1 km/h (1 Bft)
10.05.2015 06:40 9,1 C 8,9 C 90 % 1025,3 hPa 0,0 l/m 2 min 0 min 51 W/m 2,1 km/h (1 Bft)
10.05.2015 06:42 9,0 C 8,9 C 90 % 1025,3 hPa 0,0 l/m 2 min 0 min 55 W/m 2,1 km/h (1 Bft)
10.05.2015 06:44 9,0 C 8,9 C 90 % 1025,2 hPa 0,0 l/m 2 min 0 min 56 W/m 4,2 km/h (1 Bft)
10.05.2015 06:46 9,0 C 8,9 C 90 % 1025,3 hPa 0,0 l/m 2 min 0 min 59 W/m 2,1 km/h (1 Bft)
10.05.2015 06:48 8,9 C 8,9 C 90 % 1025,3 hPa 0,0 l/m 2 min 0 min 61 W/m 4,2 km/h (1 Bft)
10.05.2015 06:50 8,9 C 8,9 C 90 % 1025,3 hPa 0,0 l/m 0 min 0 min 62 W/m 4,2 km/h (1 Bft)
10.05.2015 06:52 8,9 C 8,9 C 90 % 1025,4 hPa 0,0 l/m 0 min 0 min 64 W/m 2,1 km/h (1 Bft)
10.05.2015 06:54 8,9 C 8,9 C 91 % 1025,4 hPa 0,0 l/m 0 min 0 min 65 W/m 2,1 km/h (1 Bft)
10.05.2015 06:56 8,9 C 8,9 C 91 % 1025,5 hPa 0,0 l/m 0 min 0 min 70 W/m 4,2 km/h (1 Bft)
10.05.2015 06:58 8,9 C 8,9 C 91 % 1025,4 hPa 0,0 l/m 2 min 0 min 74 W/m 2,1 km/h (1 Bft)
10.05.2015 07:00 8,9 C 8,9 C 91 % 1025,4 hPa 0,0 l/m 2 min 0 min 76 W/m 4,2 km/h (1 Bft)
10.05.2015 07:02 8,9 C 8,9 C 91 % 1025,5 hPa 0,0 l/m 0 min 0 min 78 W/m 4,2 km/h (1 Bft)
10.05.2015 07:04 8,9 C 8,9 C 91 % 1025,5 hPa 0,0 l/m 2 min 0 min 81 W/m 2,1 km/h (1 Bft)
10.05.2015 07:06 8,9 C 8,9 C 91 % 1025,5 hPa 0,0 l/m 0 min 0 min 83 W/m 4,2 km/h (1 Bft)
10.05.2015 07:08 8,9 C 8,9 C 91 % 1025,6 hPa 0,0 l/m 2 min 0 min 88 W/m 4,2 km/h (1 Bft)
10.05.2015 07:10 8,9 C 8,9 C 91 % 1025,6 hPa 0,0 l/m 2 min 0 min 93 W/m 4,2 km/h (1 Bft)
10.05.2015 07:12 8,9 C 8,9 C 91 % 1025,6 hPa 0,0 l/m 2 min 0 min 95 W/m 4,2 km/h (1 Bft)
10.05.2015 07:14 8,9 C 8,9 C 91 % 1025,6 hPa 0,0 l/m 2 min 0 min 97 W/m 2,1 km/h (1 Bft)
10.05.2015 07:16 8,9 C 8,9 C 91 % 1025,6 hPa 0,0 l/m 0 min 0 min 84 W/m 2,1 km/h (1 Bft)
10.05.2015 07:18 8,9 C 9,4 C 91 % 1025,6 hPa 0,0 l/m 2 min 0 min 101 W/m 6,3 km/h (2 Bft)
10.05.2015 07:20 8,9 C 9,4 C 92 % 1025,6 hPa 0,0 l/m 2 min 0 min 103 W/m 4,2 km/h (1 Bft)
10.05.2015 07:22 9,0 C 9,4 C 92 % 1025,7 hPa 0,0 l/m 2 min 0 min 107 W/m 6,3 km/h (2 Bft)
10.05.2015 07:24 9,0 C 9,4 C 92 % 1025,7 hPa 0,0 l/m 2 min 0 min 116 W/m 6,3 km/h (2 Bft)
10.05.2015 07:26 9,1 C 9,4 C 92 % 1025,7 hPa 0,0 l/m 2 min 0 min 114 W/m 4,2 km/h (1 Bft)
10.05.2015 07:28 9,1 C 9,4 C 92 % 1025,8 hPa 0,0 l/m 2 min 0 min 121 W/m 8,4 km/h (2 Bft)
10.05.2015 07:30 9,2 C 9,4 C 93 % 1025,8 hPa 0,0 l/m 2 min 0 min 127 W/m 6,3 km/h (2 Bft)
10.05.2015 07:32 9,2 C 9,4 C 92 % 1025,8 hPa 0,0 l/m 2 min 0 min 130 W/m 8,4 km/h (2 Bft)
10.05.2015 07:34 9,2 C 9,4 C 93 % 1025,9 hPa 0,0 l/m 2 min 0 min 134 W/m 4,2 km/h (1 Bft)
10.05.2015 07:36 9,3 C 9,4 C 93 % 1025,8 hPa 0,0 l/m 2 min 0 min 138 W/m 4,2 km/h (1 Bft)
10.05.2015 07:38 9,3 C 9,4 C 93 % 1025,8 hPa 0,0 l/m 2 min 0 min 142 W/m 8,4 km/h (2 Bft)
10.05.2015 07:40 9,4 C 9,4 C 93 % 1025,8 hPa 0,0 l/m 2 min 0 min 147 W/m 6,3 km/h (2 Bft)
10.05.2015 07:42 9,4 C 9,4 C 93 % 1025,8 hPa 0,0 l/m 2 min 0 min 151 W/m 4,2 km/h (1 Bft)
10.05.2015 07:44 9,4 C 9,4 C 93 % 1025,8 hPa 0,0 l/m 2 min 0 min 142 W/m 6,3 km/h (2 Bft)
10.05.2015 07:46 9,5 C 9,4 C 93 % 1025,9 hPa 0,0 l/m 2 min 0 min 153 W/m 10,5 km/h (2 Bft)
10.05.2015 07:48 9,5 C 9,4 C 93 % 1025,9 hPa 0,0 l/m 2 min 0 min 166 W/m 10,5 km/h (2 Bft)
10.05.2015 07:50 9,5 C 9,4 C 94 % 1025,9 hPa 0,0 l/m 2 min 0 min 171 W/m 10,5 km/h (2 Bft)
10.05.2015 07:52 9,6 C 9,4 C 93 % 1026,0 hPa 0,0 l/m 2 min 0 min 175 W/m 8,4 km/h (2 Bft)
10.05.2015 07:54 9,6 C 9,4 C 93 % 1026,0 hPa 0,0 l/m 2 min 0 min 179 W/m 8,4 km/h (2 Bft)
10.05.2015 07:56 9,6 C 9,4 C 94 % 1026,0 hPa 0,0 l/m 2 min 0 min 178 W/m 10,5 km/h (2 Bft)
10.05.2015 07:58 9,6 C 9,4 C 94 % 1026,0 hPa 0,0 l/m 2 min 0 min 200 W/m 8,4 km/h (2 Bft)
10.05.2015 08:00 9,6 C 9,4 C 94 % 1026,0 hPa 0,0 l/m 2 min 0 min 208 W/m 6,3 km/h (2 Bft)
10.05.2015 08:02 9,6 C 9,4 C 94 % 1026,0 hPa 0,0 l/m 2 min 0 min 216 W/m 4,2 km/h (1 Bft)
10.05.2015 08:04 9,7 C 9,4 C 94 % 1026,0 hPa 0,0 l/m 2 min 0 min 171 W/m 6,3 km/h (2 Bft)
10.05.2015 08:06 9,7 C 9,4 C 94 % 1025,9 hPa 0,0 l/m 2 min 0 min 194 W/m 6,3 km/h (2 Bft)
10.05.2015 08:08 9,7 C 9,4 C 94 % 1026,0 hPa 0,0 l/m 2 min 0 min 223 W/m 8,4 km/h (2 Bft)
10.05.2015 08:10 9,7 C 9,4 C 94 % 1026,0 hPa 0,0 l/m 2 min 0 min 232 W/m 10,5 km/h (2 Bft)
10.05.2015 08:12 9,7 C 9,4 C 94 % 1026,0 hPa 0,0 l/m 2 min 0 min 237 W/m 6,3 km/h (2 Bft)
10.05.2015 08:14 9,7 C 9,4 C 94 % 1026,0 hPa 0,0 l/m 2 min 0 min 238 W/m 6,3 km/h (2 Bft)
10.05.2015 08:16 9,8 C 9,4 C 94 % 1026,0 hPa 0,0 l/m 2 min 0 min 248 W/m 6,3 km/h (2 Bft)
10.05.2015 08:18 9,8 C 9,4 C 94 % 1026,1 hPa 0,0 l/m 2 min 0 min 256 W/m 8,4 km/h (2 Bft)
10.05.2015 08:20 9,8 C 10,0 C 94 % 1026,0 hPa 0,0 l/m 2 min 0 min 259 W/m 6,3 km/h (2 Bft)
10.05.2015 08:22 9,8 C 10,0 C 94 % 1026,0 hPa 0,0 l/m 2 min 0 min 268 W/m 6,3 km/h (2 Bft)
10.05.2015 08:24 9,8 C 10,0 C 94 % 1026,0 hPa 0,0 l/m 2 min 0 min 267 W/m 10,5 km/h (2 Bft)
10.05.2015 08:26 9,9 C 10,0 C 94 % 1026,0 hPa 0,0 l/m 2 min 0 min 276 W/m 8,4 km/h (2 Bft)
10.05.2015 08:28 9,9 C 10,0 C 93 % 1026,1 hPa 0,0 l/m 2 min 0 min 284 W/m 8,4 km/h (2 Bft)
10.05.2015 08:30 9,9 C 10,0 C 93 % 1026,1 hPa 0,0 l/m 2 min 0 min 295 W/m 6,3 km/h (2 Bft)
10.05.2015 08:32 10,0 C 10,0 C 93 % 1026,0 hPa 0,0 l/m 2 min 0 min 300 W/m 8,4 km/h (2 Bft)
10.05.2015 08:34 10,1 C 10,0 C 93 % 1026,0 hPa 0,0 l/m 2 min 0 min 305 W/m 4,2 km/h (1 Bft)
10.05.2015 08:36 10,1 C 10,0 C 93 % 1026,0 hPa 0,0 l/m 2 min 0 min 315 W/m 4,2 km/h (1 Bft)
10.05.2015 08:38 10,2 C 10,0 C 92 % 1026,0 hPa 0,0 l/m 2 min 0 min 319 W/m 6,3 km/h (2 Bft)
10.05.2015 08:40 10,2 C 10,0 C 92 % 1026,0 hPa 0,0 l/m 2 min 0 min 333 W/m 6,3 km/h (2 Bft)
10.05.2015 08:42 10,3 C 10,0 C 92 % 1026,0 hPa 0,0 l/m 2 min 0 min 328 W/m 8,4 km/h (2 Bft)
10.05.2015 08:44 10,4 C 10,0 C 92 % 1026,1 hPa 0,0 l/m 2 min 0 min 330 W/m 10,5 km/h (2 Bft)
10.05.2015 08:46 10,6 C 10,0 C 92 % 1026,1 hPa 0,0 l/m 2 min 0 min 347 W/m 6,3 km/h (2 Bft)
10.05.2015 08:48 10,7 C 10,0 C 92 % 1026,1 hPa 0,0 l/m 2 min 0 min 349 W/m 8,4 km/h (2 Bft)
10.05.2015 08:50 10,7 C 10,0 C 91 % 1026,1 hPa 0,0 l/m 2 min 0 min 356 W/m 10,5 km/h (2 Bft)
10.05.2015 08:52 10,8 C 10,0 C 91 % 1026,1 hPa 0,0 l/m 2 min 0 min 363 W/m 6,3 km/h (2 Bft)
10.05.2015 08:54 10,9 C 10,0 C 90 % 1026,0 hPa 0,0 l/m 2 min 0 min 373 W/m 4,2 km/h (1 Bft)
10.05.2015 08:56 11,0 C 10,0 C 90 % 1026,0 hPa 0,0 l/m 2 min 0 min 374 W/m 8,4 km/h (2 Bft)
10.05.2015 08:58 11,1 C 10,0 C 90 % 1026,0 hPa 0,0 l/m 2 min 0 min 381 W/m 14,6 km/h (3 Bft)
10.05.2015 09:00 11,2 C 10,6 C 89 % 1026,1 hPa 0,0 l/m 2 min 0 min 383 W/m 8,4 km/h (2 Bft)
10.05.2015 09:02 11,3 C 10,6 C 89 % 1026,1 hPa 0,0 l/m 2 min 0 min 377 W/m 6,3 km/h (2 Bft)
10.05.2015 09:04 11,4 C 10,6 C 88 % 1026,1 hPa 0,0 l/m 2 min 0 min 394 W/m 8,4 km/h (2 Bft)
10.05.2015 09:06 11,5 C 10,6 C 88 % 1026,1 hPa 0,0 l/m 2 min 0 min 400 W/m 6,3 km/h (2 Bft)
10.05.2015 09:08 11,6 C 10,6 C 87 % 1026,2 hPa 0,0 l/m 2 min 0 min 410 W/m 8,4 km/h (2 Bft)
10.05.2015 09:10 11,7 C 10,6 C 87 % 1026,2 hPa 0,0 l/m 2 min 0 min 405 W/m 12,6 km/h (3 Bft)
10.05.2015 09:12 11,8 C 10,6 C 85 % 1026,2 hPa 0,0 l/m 2 min 0 min 425 W/m 12,6 km/h (3 Bft)
10.05.2015 09:14 11,9 C 10,6 C 83 % 1026,2 hPa 0,0 l/m 2 min 0 min 428 W/m 12,6 km/h (3 Bft)
10.05.2015 09:16 12,1 C 10,6 C 82 % 1026,2 hPa 0,0 l/m 2 min 0 min 397 W/m 6,3 km/h (2 Bft)
10.05.2015 09:18 12,2 C 10,6 C 81 % 1026,2 hPa 0,0 l/m 2 min 0 min 420 W/m 10,5 km/h (2 Bft)
10.05.2015 09:20 12,3 C 10,6 C 80 % 1026,2 hPa 0,0 l/m 2 min 0 min 452 W/m 10,5 km/h (2 Bft)
10.05.2015 09:22 12,4 C 10,6 C 79 % 1026,2 hPa 0,0 l/m 2 min 0 min 455 W/m 10,5 km/h (2 Bft)
10.05.2015 09:24 12,6 C 10,6 C 78 % 1026,3 hPa 0,0 l/m 2 min 0 min 457 W/m 8,4 km/h (2 Bft)
10.05.2015 09:26 12,7 C 10,6 C 77 % 1026,3 hPa 0,0 l/m 2 min 0 min 433 W/m 8,4 km/h (2 Bft)
10.05.2015 09:28 12,9 C 10,6 C 77 % 1026,3 hPa 0,0 l/m 2 min 0 min 452 W/m 10,5 km/h (2 Bft)
10.05.2015 09:30 13,0 C 11,1 C 76 % 1026,3 hPa 0,0 l/m 2 min 0 min 468 W/m 8,4 km/h (2 Bft)
10.05.2015 09:32 13,1 C 11,1 C 76 % 1026,3 hPa 0,0 l/m 2 min 0 min 467 W/m 10,5 km/h (2 Bft)
10.05.2015 09:34 13,3 C 11,7 C 75 % 1026,3 hPa 0,0 l/m 2 min 0 min 484 W/m 16,7 km/h (3 Bft)
10.05.2015 09:36 13,4 C 11,7 C 76 % 1026,3 hPa 0,0 l/m 2 min 0 min 468 W/m 12,6 km/h (3 Bft)
10.05.2015 09:38 13,5 C 11,7 C 76 % 1026,3 hPa 0,0 l/m 2 min 0 min 465 W/m 6,3 km/h (2 Bft)
10.05.2015 09:40 13,7 C 11,7 C 76 % 1026,3 hPa 0,0 l/m 2 min 0 min 502 W/m 10,5 km/h (2 Bft)
10.05.2015 09:42 13,8 C 11,7 C 75 % 1026,3 hPa 0,0 l/m 2 min 0 min 530 W/m 6,3 km/h (2 Bft)
10.05.2015 09:44 13,9 C 12,2 C 75 % 1026,3 hPa 0,0 l/m 2 min 0 min 530 W/m 10,5 km/h (2 Bft)
10.05.2015 09:46 14,1 C 12,2 C 74 % 1026,3 hPa 0,0 l/m 2 min 0 min 545 W/m 14,6 km/h (3 Bft)
10.05.2015 09:48 14,2 C 12,2 C 73 % 1026,3 hPa 0,0 l/m 2 min 0 min 529 W/m 10,5 km/h (2 Bft)
10.05.2015 09:50 14,3 C 12,8 C 73 % 1026,4 hPa 0,0 l/m 2 min 0 min 526 W/m 10,5 km/h (2 Bft)
10.05.2015 09:52 14,4 C 12,2 C 71 % 1026,4 hPa 0,0 l/m 2 min 0 min 543 W/m 12,6 km/h (3 Bft)
10.05.2015 09:54 14,5 C 12,2 C 71 % 1026,5 hPa 0,0 l/m 2 min 0 min 389 W/m 8,4 km/h (2 Bft)
10.05.2015 09:56 14,5 C 11,7 C 70 % 1026,5 hPa 0,0 l/m 0 min 0 min 209 W/m 10,5 km/h (2 Bft)
10.05.2015 09:58 14,6 C 12,2 C 70 % 1026,5 hPa 0,0 l/m 2 min 0 min 422 W/m 14,6 km/h (3 Bft)
10.05.2015 10:00 14,6 C 12,2 C 70 % 1026,5 hPa 0,0 l/m 2 min 0 min 585 W/m 6,3 km/h (2 Bft)
10.05.2015 10:02 14,7 C 12,2 C 71 % 1026,5 hPa 0,0 l/m 2 min 0 min 536 W/m 8,4 km/h (2 Bft)
10.05.2015 10:04 14,7 C 12,2 C 71 % 1026,5 hPa 0,0 l/m 0 min 0 min 197 W/m 10,5 km/h (2 Bft)
10.05.2015 10:06 14,7 C 12,2 C 70 % 1026,6 hPa 0,0 l/m 0 min 0 min 203 W/m 10,5 km/h (2 Bft)
10.05.2015 10:08 14,7 C 12,2 C 70 % 1026,5 hPa 0,0 l/m 0 min 0 min 195 W/m 6,3 km/h (2 Bft)
10.05.2015 10:10 14,7 C 12,2 C 70 % 1026,6 hPa 0,0 l/m 2 min 0 min 332 W/m 12,6 km/h (3 Bft)
10.05.2015 10:12 14,7 C 12,2 C 70 % 1026,6 hPa 0,0 l/m 2 min 0 min 616 W/m 10,5 km/h (2 Bft)
10.05.2015 10:14 14,8 C 12,2 C 70 % 1026,6 hPa 0,0 l/m 2 min 0 min 588 W/m 10,5 km/h (2 Bft)
10.05.2015 10:16 14,8 C 12,8 C 70 % 1026,6 hPa 0,0 l/m 2 min 0 min 536 W/m 8,4 km/h (2 Bft)
10.05.2015 10:18 14,8 C 12,8 C 69 % 1026,6 hPa 0,0 l/m 2 min 0 min 632 W/m 8,4 km/h (2 Bft)
10.05.2015 10:20 14,8 C 12,8 C 69 % 1026,6 hPa 0,0 l/m 2 min 0 min 671 W/m 8,4 km/h (2 Bft)
10.05.2015 10:22 14,8 C 12,8 C 69 % 1026,6 hPa 0,0 l/m 2 min 0 min 316 W/m 12,6 km/h (3 Bft)
10.05.2015 10:24 14,8 C 12,2 C 69 % 1026,6 hPa 0,0 l/m 0 min 0 min 193 W/m 6,3 km/h (2 Bft)
10.05.2015 10:26 14,8 C 12,8 C 70 % 1026,7 hPa 0,0 l/m 0 min 0 min 229 W/m 6,3 km/h (2 Bft)
10.05.2015 10:28 14,9 C 12,8 C 71 % 1026,7 hPa 0,0 l/m 2 min 0 min 506 W/m 8,4 km/h (2 Bft)
10.05.2015 10:30 14,9 C 12,8 C 71 % 1026,7 hPa 0,0 l/m 2 min 0 min 598 W/m 12,6 km/h (3 Bft)
10.05.2015 10:32 15,0 C 12,8 C 70 % 1026,7 hPa 0,0 l/m 2 min 0 min 597 W/m 10,5 km/h (2 Bft)
10.05.2015 10:34 15,1 C 12,8 C 70 % 1026,8 hPa 0,0 l/m 2 min 0 min 346 W/m 8,4 km/h (2 Bft)
10.05.2015 10:36 15,1 C 12,8 C 69 % 1026,7 hPa 0,0 l/m 2 min 0 min 662 W/m 8,4 km/h (2 Bft)
10.05.2015 10:38 15,2 C 13,3 C 69 % 1026,8 hPa 0,0 l/m 2 min 0 min 685 W/m 8,4 km/h (2 Bft)
10.05.2015 10:40 15,2 C 13,3 C 70 % 1026,8 hPa 0,0 l/m 2 min 0 min 697 W/m 14,6 km/h (3 Bft)
10.05.2015 10:42 15,4 C 13,9 C 72 % 1026,8 hPa 0,0 l/m 2 min 0 min 728 W/m 10,5 km/h (2 Bft)
10.05.2015 10:44 15,6 C 13,9 C 70 % 1026,8 hPa 0,0 l/m 2 min 0 min 761 W/m 18,8 km/h (3 Bft)
10.05.2015 10:46 15,6 C 13,3 C 68 % 1026,8 hPa 0,0 l/m 2 min 0 min 343 W/m 14,6 km/h (3 Bft)
10.05.2015 10:48 15,6 C 13,3 C 67 % 1026,8 hPa 0,0 l/m 0 min 0 min 220 W/m 14,6 km/h (3 Bft)
10.05.2015 10:50 15,6 C 12,8 C 67 % 1026,8 hPa 0,0 l/m 0 min 0 min 281 W/m 12,6 km/h (3 Bft)
10.05.2015 10:52 15,6 C 12,8 C 67 % 1026,8 hPa 0,0 l/m 2 min 0 min 435 W/m 8,4 km/h (2 Bft)
10.05.2015 10:54 15,7 C 13,3 C 68 % 1026,8 hPa 0,0 l/m 2 min 0 min 696 W/m 10,5 km/h (2 Bft)
10.05.2015 10:56 15,7 C 13,3 C 68 % 1026,8 hPa 0,0 l/m 2 min 0 min 702 W/m 8,4 km/h (2 Bft)
10.05.2015 10:58 15,8 C 13,3 C 67 % 1026,8 hPa 0,0 l/m 2 min 0 min 706 W/m 10,5 km/h (2 Bft)
10.05.2015 11:00 15,8 C 13,9 C 68 % 1026,8 hPa 0,0 l/m 2 min 0 min 708 W/m 14,6 km/h (3 Bft)
10.05.2015 11:02 15,9 C 13,9 C 69 % 1026,8 hPa 0,0 l/m 2 min 0 min 697 W/m 14,6 km/h (3 Bft)
10.05.2015 11:04 16,1 C 13,9 C 67 % 1026,8 hPa 0,0 l/m 2 min 0 min 712 W/m 12,6 km/h (3 Bft)
10.05.2015 11:06 16,2 C 14,4 C 68 % 1026,9 hPa 0,0 l/m 2 min 0 min 728 W/m 10,5 km/h (2 Bft)
10.05.2015 11:08 16,3 C 14,4 C 66 % 1026,9 hPa 0,0 l/m 2 min 0 min 740 W/m 6,3 km/h (2 Bft)
10.05.2015 11:10 16,4 C 14,4 C 66 % 1026,9 hPa 0,0 l/m 2 min 0 min 675 W/m 12,6 km/h (3 Bft)
10.05.2015 11:12 16,4 C 13,9 C 66 % 1026,9 hPa 0,0 l/m 2 min 0 min 654 W/m 8,4 km/h (2 Bft)
10.05.2015 11:14 16,5 C 13,9 C 65 % 1026,9 hPa 0,0 l/m 2 min 0 min 750 W/m 10,5 km/h (2 Bft)
10.05.2015 11:16 16,6 C 13,9 C 66 % 1026,9 hPa 0,0 l/m 2 min 0 min 802 W/m 6,3 km/h (2 Bft)
10.05.2015 11:18 16,7 C 14,4 C 66 % 1026,8 hPa 0,0 l/m 2 min 0 min 798 W/m 4,2 km/h (1 Bft)
10.05.2015 11:20 16,9 C 14,4 C 66 % 1026,9 hPa 0,0 l/m 2 min 0 min 797 W/m 12,6 km/h (3 Bft)
10.05.2015 11:22 16,9 C 13,9 C 64 % 1026,9 hPa 0,0 l/m 0 min 0 min 266 W/m 12,6 km/h (3 Bft)
10.05.2015 11:24 16,9 C 13,9 C 64 % 1027,0 hPa 0,0 l/m 0 min 0 min 194 W/m 12,6 km/h (3 Bft)
10.05.2015 11:26 16,9 C 13,9 C 62 % 1026,9 hPa 0,0 l/m 0 min 0 min 203 W/m 12,6 km/h (3 Bft)
10.05.2015 11:28 16,8 C 13,3 C 62 % 1026,9 hPa 0,0 l/m 0 min 0 min 161 W/m 10,5 km/h (2 Bft)
10.05.2015 11:30 16,7 C 13,3 C 63 % 1027,0 hPa 0,0 l/m 0 min 0 min 146 W/m 10,5 km/h (2 Bft)
10.05.2015 11:32 16,6 C 13,3 C 63 % 1026,9 hPa 0,0 l/m 0 min 0 min 152 W/m 4,2 km/h (1 Bft)
10.05.2015 11:34 16,6 C 13,3 C 65 % 1026,9 hPa 0,0 l/m 2 min 0 min 720 W/m 6,3 km/h (2 Bft)
10.05.2015 11:36 16,6 C 13,9 C 66 % 1027,0 hPa 0,0 l/m 2 min 0 min 820 W/m 6,3 km/h (2 Bft)
10.05.2015 11:38 16,7 C 14,4 C 66 % 1026,9 hPa 0,0 l/m 2 min 0 min 842 W/m 8,4 km/h (2 Bft)
10.05.2015 11:40 16,7 C 14,4 C 66 % 1026,9 hPa 0,0 l/m 2 min 0 min 846 W/m 12,6 km/h (3 Bft)
10.05.2015 11:42 16,8 C 14,4 C 65 % 1027,0 hPa 0,0 l/m 2 min 0 min 785 W/m 10,5 km/h (2 Bft)
10.05.2015 11:44 16,9 C 14,4 C 66 % 1027,0 hPa 0,0 l/m 2 min 0 min 765 W/m 8,4 km/h (2 Bft)
10.05.2015 11:46 17,0 C 14,4 C 65 % 1027,0 hPa 0,0 l/m 0 min 0 min 346 W/m 4,2 km/h (1 Bft)
10.05.2015 11:48 17,1 C 14,4 C 65 % 1027,1 hPa 0,0 l/m 2 min 0 min 421 W/m 16,7 km/h (3 Bft)
10.05.2015 11:50 17,1 C 14,4 C 63 % 1027,1 hPa 0,0 l/m 2 min 0 min 581 W/m 14,6 km/h (3 Bft)
10.05.2015 11:52 17,1 C 14,4 C 63 % 1027,1 hPa 0,0 l/m 0 min 0 min 183 W/m 12,6 km/h (3 Bft)
10.05.2015 11:54 17,1 C 13,9 C 62 % 1027,1 hPa 0,0 l/m 0 min 0 min 191 W/m 14,6 km/h (3 Bft)
10.05.2015 11:56 16,9 C 13,9 C 61 % 1027,0 hPa 0,0 l/m 0 min 0 min 205 W/m 12,6 km/h (3 Bft)
10.05.2015 11:58 16,9 C 13,9 C 61 % 1027,0 hPa 0,0 l/m 0 min 0 min 223 W/m 10,5 km/h (2 Bft)
10.05.2015 12:00 16,8 C 13,9 C 62 % 1027,1 hPa 0,0 l/m 0 min 0 min 244 W/m 14,6 km/h (3 Bft)
10.05.2015 12:02 16,7 C 13,9 C 61 % 1027,1 hPa 0,0 l/m 0 min 0 min 285 W/m 14,6 km/h (3 Bft)
10.05.2015 12:06 16,6 C 14,4 C 63 % 1027,1 hPa 0,0 l/m 2 min 0 min 713 W/m 10,5 km/h (2 Bft)
10.05.2015 12:08 16,6 C 15,0 C 63 % 1027,0 hPa 0,0 l/m 2 min 0 min 875 W/m 8,4 km/h (2 Bft)
10.05.2015 12:10 16,7 C 15,0 C 65 % 1027,0 hPa 0,0 l/m 2 min 0 min 599 W/m 12,6 km/h (3 Bft)
10.05.2015 12:12 16,8 C 15,6 C 63 % 1027,1 hPa 0,0 l/m 2 min 0 min 454 W/m 12,6 km/h (3 Bft)
10.05.2015 12:14 16,8 C 15,6 C 63 % 1027,0 hPa 0,0 l/m 2 min 0 min 654 W/m 16,7 km/h (3 Bft)
10.05.2015 12:16 16,9 C 15,6 C 62 % 1026,9 hPa 0,0 l/m 2 min 0 min 903 W/m 10,5 km/h (2 Bft)
10.05.2015 12:18 16,9 C 15,6 C 61 % 1026,9 hPa 0,0 l/m 2 min 0 min 904 W/m 8,4 km/h (2 Bft)
10.05.2015 12:20 16,9 C 15,0 C 62 % 1026,9 hPa 0,0 l/m 2 min 0 min 400 W/m 10,5 km/h (2 Bft)
10.05.2015 12:22 16,9 C 15,0 C 62 % 1026,9 hPa 0,0 l/m 0 min 0 min 287 W/m 8,4 km/h (2 Bft)
10.05.2015 12:24 17,0 C 15,0 C 62 % 1026,9 hPa 0,0 l/m 0 min 0 min 291 W/m 10,5 km/h (2 Bft)
10.05.2015 12:26 17,0 C 15,0 C 63 % 1026,9 hPa 0,0 l/m 0 min 0 min 325 W/m 6,3 km/h (2 Bft)
10.05.2015 12:28 17,1 C 15,0 C 63 % 1026,8 hPa 0,0 l/m 0 min 0 min 324 W/m 10,5 km/h (2 Bft)
10.05.2015 12:30 17,1 C 15,0 C 63 % 1026,8 hPa 0,0 l/m 0 min 0 min 284 W/m 8,4 km/h (2 Bft)
10.05.2015 12:32 17,1 C 15,0 C 62 % 1026,8 hPa 0,0 l/m 0 min 0 min 294 W/m 10,5 km/h (2 Bft)
10.05.2015 12:34 17,0 C 15,0 C 60 % 1026,8 hPa 0,0 l/m 0 min 0 min 315 W/m 8,4 km/h (2 Bft)
10.05.2015 12:36 17,0 C 15,0 C 60 % 1026,8 hPa 0,0 l/m 0 min 0 min 320 W/m 14,6 km/h (3 Bft)
10.05.2015 12:38 16,9 C 15,0 C 61 % 1026,8 hPa 0,0 l/m 0 min 0 min 325 W/m 10,5 km/h (2 Bft)
10.05.2015 12:40 16,9 C 15,0 C 61 % 1026,8 hPa 0,0 l/m 0 min 0 min 299 W/m 10,5 km/h (2 Bft)
10.05.2015 12:42 16,8 C 14,4 C 61 % 1026,8 hPa 0,0 l/m 0 min 0 min 264 W/m 8,4 km/h (2 Bft)
10.05.2015 12:44 16,8 C 15,0 C 62 % 1026,8 hPa 0,0 l/m 0 min 0 min 274 W/m 8,4 km/h (2 Bft)
10.05.2015 12:46 16,8 C 15,0 C 62 % 1026,8 hPa 0,0 l/m 0 min 0 min 290 W/m 10,5 km/h (2 Bft)
10.05.2015 12:48 16,8 C 15,0 C 62 % 1026,8 hPa 0,0 l/m 0 min 0 min 284 W/m 12,6 km/h (3 Bft)
10.05.2015 12:50 16,8 C 14,4 C 62 % 1026,8 hPa 0,0 l/m 0 min 0 min 265 W/m 4,2 km/h (1 Bft)
10.05.2015 12:52 16,8 C 14,4 C 62 % 1026,8 hPa 0,0 l/m 0 min 0 min 266 W/m 10,5 km/h (2 Bft)
10.05.2015 12:54 16,8 C 15,0 C 63 % 1026,9 hPa 0,0 l/m 2 min 0 min 725 W/m 12,6 km/h (3 Bft)
10.05.2015 12:56 16,8 C 15,0 C 61 % 1026,9 hPa 0,0 l/m 2 min 0 min 925 W/m 8,4 km/h (2 Bft)
10.05.2015 12:58 16,8 C 16,1 C 63 % 1026,9 hPa 0,0 l/m 2 min 0 min 925 W/m 6,3 km/h (2 Bft)
10.05.2015 13:00 16,9 C 16,7 C 62 % 1026,9 hPa 0,0 l/m 2 min 0 min 937 W/m 8,4 km/h (2 Bft)
10.05.2015 13:02 17,1 C 17,2 C 63 % 1026,9 hPa 0,0 l/m 2 min 0 min 939 W/m 8,4 km/h (2 Bft)
10.05.2015 13:04 17,2 C 17,2 C 63 % 1026,9 hPa 0,0 l/m 2 min 0 min 933 W/m 10,5 km/h (2 Bft)
10.05.2015 13:06 17,3 C 17,8 C 61 % 1026,9 hPa 0,0 l/m 2 min 0 min 959 W/m 18,8 km/h (3 Bft)
10.05.2015 13:08 17,5 C 17,2 C 61 % 1026,9 hPa 0,0 l/m 2 min 0 min 965 W/m 12,6 km/h (3 Bft)
10.05.2015 13:10 17,6 C 16,7 C 61 % 1026,9 hPa 0,0 l/m 2 min 0 min 642 W/m 8,4 km/h (2 Bft)
10.05.2015 13:12 17,7 C 16,1 C 59 % 1026,9 hPa 0,0 l/m 2 min 0 min 431 W/m 10,5 km/h (2 Bft)
10.05.2015 13:14 17,7 C 17,2 C 59 % 1026,9 hPa 0,0 l/m 2 min 0 min 694 W/m 14,6 km/h (3 Bft)
10.05.2015 13:16 17,7 C 16,7 C 61 % 1027,0 hPa 0,0 l/m 2 min 0 min 588 W/m 16,7 km/h (3 Bft)
10.05.2015 13:18 17,8 C 16,7 C 60 % 1026,9 hPa 0,0 l/m 0 min 0 min 341 W/m 16,7 km/h (3 Bft)
10.05.2015 13:20 17,8 C 16,1 C 61 % 1026,9 hPa 0,0 l/m 2 min 0 min 456 W/m 18,8 km/h (3 Bft)
10.05.2015 13:22 17,8 C 16,7 C 61 % 1026,9 hPa 0,0 l/m 2 min 0 min 830 W/m 16,7 km/h (3 Bft)
10.05.2015 13:24 17,8 C 16,1 C 60 % 1026,8 hPa 0,0 l/m 0 min 0 min 366 W/m 14,6 km/h (3 Bft)
10.05.2015 13:26 17,8 C 16,1 C 59 % 1026,8 hPa 0,0 l/m 0 min 0 min 274 W/m 10,5 km/h (2 Bft)
10.05.2015 13:28 17,8 C 15,6 C 60 % 1026,8 hPa 0,0 l/m 0 min 0 min 289 W/m 6,3 km/h (2 Bft)
10.05.2015 13:30 17,8 C 15,6 C 59 % 1026,8 hPa 0,0 l/m 0 min 0 min 309 W/m 8,4 km/h (2 Bft)
10.05.2015 13:32 17,7 C 16,1 C 60 % 1026,8 hPa 0,0 l/m 0 min 0 min 318 W/m 14,6 km/h (3 Bft)
10.05.2015 13:34 17,8 C 16,7 C 60 % 1026,8 hPa 0,0 l/m 2 min 0 min 442 W/m 10,5 km/h (2 Bft)
10.05.2015 13:36 17,8 C 16,7 C 60 % 1026,8 hPa 0,0 l/m 2 min 0 min 928 W/m 10,5 km/h (2 Bft)
10.05.2015 13:38 17,9 C 16,7 C 58 % 1026,7 hPa 0,0 l/m 2 min 0 min 935 W/m 6,3 km/h (2 Bft)
10.05.2015 13:40 17,9 C 16,7 C 58 % 1026,7 hPa 0,0 l/m 2 min 0 min 944 W/m 10,5 km/h (2 Bft)
10.05.2015 13:42 18,0 C 16,7 C 59 % 1026,7 hPa 0,0 l/m 2 min 0 min 758 W/m 6,3 km/h (2 Bft)
10.05.2015 13:44 18,1 C 16,7 C 57 % 1026,7 hPa 0,0 l/m 2 min 0 min 714 W/m 4,2 km/h (1 Bft)
10.05.2015 13:46 18,1 C 16,1 C 57 % 1026,7 hPa 0,0 l/m 2 min 0 min 617 W/m 6,3 km/h (2 Bft)
10.05.2015 13:48 18,1 C 16,1 C 57 % 1026,6 hPa 0,0 l/m 0 min 0 min 290 W/m 8,4 km/h (2 Bft)
10.05.2015 13:50 18,1 C 16,1 C 57 % 1026,6 hPa 0,0 l/m 2 min 0 min 853 W/m 8,4 km/h (2 Bft)
10.05.2015 13:52 18,2 C 16,1 C 58 % 1026,6 hPa 0,0 l/m 2 min 0 min 908 W/m 6,3 km/h (2 Bft)
10.05.2015 13:54 18,2 C 16,1 C 58 % 1026,5 hPa 0,0 l/m 2 min 0 min 916 W/m 12,6 km/h (3 Bft)
10.05.2015 13:56 18,2 C 16,1 C 57 % 1026,5 hPa 0,0 l/m 2 min 0 min 551 W/m 14,6 km/h (3 Bft)
10.05.2015 13:58 18,2 C 15,6 C 58 % 1026,5 hPa 0,0 l/m 0 min 0 min 255 W/m 14,6 km/h (3 Bft)
10.05.2015 14:00 18,2 C 15,6 C 58 % 1026,5 hPa 0,0 l/m 0 min 0 min 251 W/m 10,5 km/h (2 Bft)
10.05.2015 14:02 18,2 C 15,6 C 58 % 1026,5 hPa 0,0 l/m 0 min 0 min 262 W/m 8,4 km/h (2 Bft)
10.05.2015 14:04 18,1 C 15,6 C 58 % 1026,5 hPa 0,0 l/m 0 min 0 min 287 W/m 8,4 km/h (2 Bft)
10.05.2015 14:06 18,1 C 15,6 C 58 % 1026,5 hPa 0,0 l/m 2 min 0 min 566 W/m 8,4 km/h (2 Bft)
10.05.2015 14:08 18,1 C 16,1 C 58 % 1026,5 hPa 0,0 l/m 2 min 0 min 945 W/m 6,3 km/h (2 Bft)
10.05.2015 14:10 18,2 C 16,1 C 58 % 1026,6 hPa 0,0 l/m 2 min 0 min 947 W/m 4,2 km/h (1 Bft)
10.05.2015 14:12 18,3 C 16,7 C 59 % 1026,6 hPa 0,0 l/m 2 min 0 min 934 W/m 10,5 km/h (2 Bft)
10.05.2015 14:14 18,4 C 16,7 C 59 % 1026,7 hPa 0,0 l/m 2 min 0 min 879 W/m 12,6 km/h (3 Bft)
10.05.2015 14:16 18,5 C 16,7 C 58 % 1026,7 hPa 0,0 l/m 2 min 0 min 477 W/m 8,4 km/h (2 Bft)
10.05.2015 14:18 18,6 C 16,1 C 58 % 1026,5 hPa 0,0 l/m 0 min 0 min 305 W/m 6,3 km/h (2 Bft)
10.05.2015 14:20 18,7 C 16,1 C 58 % 1026,5 hPa 0,0 l/m 0 min 0 min 290 W/m 8,4 km/h (2 Bft)
10.05.2015 14:22 18,7 C 16,1 C 57 % 1026,4 hPa 0,0 l/m 0 min 0 min 275 W/m 8,4 km/h (2 Bft)
10.05.2015 14:24 18,7 C 16,1 C 57 % 1026,5 hPa 0,0 l/m 0 min 0 min 298 W/m 8,4 km/h (2 Bft)
10.05.2015 14:26 18,7 C 16,1 C 58 % 1026,4 hPa 0,0 l/m 2 min 0 min 894 W/m 8,4 km/h (2 Bft)
10.05.2015 14:28 18,8 C 16,7 C 59 % 1026,5 hPa 0,0 l/m 2 min 0 min 884 W/m 8,4 km/h (2 Bft)
10.05.2015 14:30 18,9 C 16,7 C 58 % 1026,4 hPa 0,0 l/m 2 min 0 min 830 W/m 12,6 km/h (3 Bft)
10.05.2015 14:32 18,9 C 17,2 C 58 % 1026,4 hPa 0,0 l/m 2 min 0 min 827 W/m 8,4 km/h (2 Bft)
10.05.2015 14:34 19,1 C 17,2 C 61 % 1026,4 hPa 0,0 l/m 2 min 0 min 847 W/m 6,3 km/h (2 Bft)
10.05.2015 14:36 19,2 C 17,2 C 59 % 1026,4 hPa 0,0 l/m 2 min 0 min 879 W/m 12,6 km/h (3 Bft)
10.05.2015 14:38 19,3 C 17,2 C 58 % 1026,4 hPa 0,0 l/m 2 min 0 min 892 W/m 8,4 km/h (2 Bft)
10.05.2015 14:40 19,4 C 17,2 C 58 % 1026,4 hPa 0,0 l/m 2 min 0 min 869 W/m 8,4 km/h (2 Bft)
10.05.2015 14:42 19,6 C 17,2 C 58 % 1026,4 hPa 0,0 l/m 2 min 0 min 849 W/m 10,5 km/h (2 Bft)
10.05.2015 14:44 19,7 C 17,2 C 57 % 1026,3 hPa 0,0 l/m 2 min 0 min 820 W/m 8,4 km/h (2 Bft)
10.05.2015 14:46 19,9 C 17,2 C 57 % 1026,3 hPa 0,0 l/m 2 min 0 min 776 W/m 16,7 km/h (3 Bft)
10.05.2015 14:48 20,0 C 16,7 C 54 % 1026,4 hPa 0,0 l/m 2 min 0 min 766 W/m 10,5 km/h (2 Bft)
10.05.2015 14:50 20,1 C 16,7 C 54 % 1026,3 hPa 0,0 l/m 2 min 0 min 778 W/m 10,5 km/h (2 Bft)
10.05.2015 14:52 20,2 C 16,7 C 53 % 1026,3 hPa 0,0 l/m 2 min 0 min 786 W/m 10,5 km/h (2 Bft)
10.05.2015 14:54 20,3 C 16,7 C 56 % 1026,3 hPa 0,0 l/m 2 min 0 min 781 W/m 8,4 km/h (2 Bft)
10.05.2015 14:56 20,4 C 16,7 C 56 % 1026,3 hPa 0,0 l/m 2 min 0 min 791 W/m 12,6 km/h (3 Bft)
10.05.2015 14:58 20,5 C 16,7 C 56 % 1026,3 hPa 0,0 l/m 2 min 0 min 776 W/m 12,6 km/h (3 Bft)
10.05.2015 15:00 20,6 C 16,7 C 56 % 1026,3 hPa 0,0 l/m 2 min 0 min 766 W/m 14,6 km/h (3 Bft)
10.05.2015 15:02 20,7 C 17,2 C 54 % 1026,3 hPa 0,0 l/m 2 min 0 min 755 W/m 8,4 km/h (2 Bft)
10.05.2015 15:04 20,7 C 17,2 C 54 % 1026,4 hPa 0,0 l/m 2 min 0 min 753 W/m 10,5 km/h (2 Bft)
10.05.2015 15:06 20,8 C 17,2 C 54 % 1026,3 hPa 0,0 l/m 2 min 0 min 746 W/m 16,7 km/h (3 Bft)
10.05.2015 15:08 20,9 C 17,2 C 56 % 1026,3 hPa 0,0 l/m 2 min 0 min 773 W/m 14,6 km/h (3 Bft)
10.05.2015 15:10 21,0 C 17,2 C 52 % 1026,3 hPa 0,0 l/m 2 min 0 min 777 W/m 12,6 km/h (3 Bft)
10.05.2015 15:12 21,0 C 17,2 C 52 % 1026,2 hPa 0,0 l/m 2 min 0 min 763 W/m 14,6 km/h (3 Bft)
10.05.2015 15:14 21,1 C 16,7 C 52 % 1026,2 hPa 0,0 l/m 2 min 0 min 739 W/m 10,5 km/h (2 Bft)
10.05.2015 15:16 21,1 C 16,7 C 52 % 1026,1 hPa 0,0 l/m 2 min 0 min 736 W/m 12,6 km/h (3 Bft)
10.05.2015 15:18 21,2 C 16,7 C 51 % 1026,1 hPa 0,0 l/m 2 min 0 min 750 W/m 8,4 km/h (2 Bft)
10.05.2015 15:20 21,2 C 16,7 C 51 % 1026,1 hPa 0,0 l/m 2 min 0 min 749 W/m 10,5 km/h (2 Bft)
10.05.2015 15:22 21,3 C 16,7 C 52 % 1026,1 hPa 0,0 l/m 2 min 0 min 749 W/m 8,4 km/h (2 Bft)
10.05.2015 15:24 21,3 C 16,7 C 50 % 1026,1 hPa 0,0 l/m 2 min 0 min 746 W/m 10,5 km/h (2 Bft)
10.05.2015 15:26 21,4 C 16,7 C 52 % 1026,1 hPa 0,0 l/m 2 min 0 min 741 W/m 14,6 km/h (3 Bft)
10.05.2015 15:28 21,4 C 16,7 C 53 % 1026,0 hPa 0,0 l/m 2 min 0 min 740 W/m 14,6 km/h (3 Bft)
10.05.2015 15:30 21,5 C 17,2 C 52 % 1026,0 hPa 0,0 l/m 2 min 0 min 732 W/m 8,4 km/h (2 Bft)
10.05.2015 15:32 21,6 C 17,2 C 50 % 1026,0 hPa 0,0 l/m 2 min 0 min 733 W/m 8,4 km/h (2 Bft)
10.05.2015 15:34 21,6 C 16,7 C 50 % 1026,0 hPa 0,0 l/m 2 min 0 min 700 W/m 16,7 km/h (3 Bft)
10.05.2015 15:36 21,6 C 16,7 C 50 % 1026,0 hPa 0,0 l/m 2 min 0 min 690 W/m 14,6 km/h (3 Bft)
10.05.2015 15:38 21,6 C 16,7 C 51 % 1026,0 hPa 0,0 l/m 2 min 0 min 657 W/m 14,6 km/h (3 Bft)
10.05.2015 15:40 21,6 C 16,7 C 50 % 1026,0 hPa 0,0 l/m 2 min 0 min 675 W/m 18,8 km/h (3 Bft)
10.05.2015 15:42 21,6 C 16,7 C 50 % 1026,0 hPa 0,0 l/m 2 min 0 min 690 W/m 12,6 km/h (3 Bft)
10.05.2015 15:44 21,6 C 16,7 C 50 % 1025,9 hPa 0,0 l/m 2 min 0 min 690 W/m 16,7 km/h (3 Bft)
10.05.2015 15:46 21,5 C 16,7 C 50 % 1025,9 hPa 0,0 l/m 2 min 0 min 668 W/m 16,7 km/h (3 Bft)
10.05.2015 15:48 21,4 C 16,7 C 51 % 1025,9 hPa 0,0 l/m 2 min 0 min 703 W/m 14,6 km/h (3 Bft)
10.05.2015 15:50 21,4 C 16,7 C 51 % 1025,9 hPa 0,0 l/m 2 min 0 min 708 W/m 12,6 km/h (3 Bft)
10.05.2015 15:52 21,4 C 17,2 C 49 % 1025,8 hPa 0,0 l/m 2 min 0 min 703 W/m 10,5 km/h (2 Bft)
10.05.2015 15:54 21,4 C 17,2 C 50 % 1025,7 hPa 0,0 l/m 2 min 0 min 695 W/m 6,3 km/h (2 Bft)
10.05.2015 15:56 21,4 C 16,7 C 50 % 1025,6 hPa 0,0 l/m 2 min 0 min 674 W/m 10,5 km/h (2 Bft)
10.05.2015 15:58 21,3 C 16,7 C 50 % 1025,8 hPa 0,0 l/m 2 min 0 min 683 W/m 12,6 km/h (3 Bft)
10.05.2015 16:00 21,3 C 17,2 C 52 % 1025,8 hPa 0,0 l/m 2 min 0 min 653 W/m 10,5 km/h (2 Bft)
10.05.2015 16:02 21,3 C 17,2 C 51 % 1025,8 hPa 0,0 l/m 2 min 0 min 681 W/m 10,5 km/h (2 Bft)
10.05.2015 16:04 21,3 C 17,2 C 52 % 1025,8 hPa 0,0 l/m 2 min 0 min 670 W/m 6,3 km/h (2 Bft)
10.05.2015 16:06 21,4 C 17,2 C 52 % 1025,8 hPa 0,0 l/m 2 min 0 min 683 W/m 6,3 km/h (2 Bft)
10.05.2015 16:08 21,4 C 17,2 C 52 % 1025,8 hPa 0,0 l/m 2 min 0 min 669 W/m 10,5 km/h (2 Bft)
10.05.2015 16:10 21,4 C 17,2 C 51 % 1025,7 hPa 0,0 l/m 2 min 0 min 605 W/m 10,5 km/h (2 Bft)
10.05.2015 16:12 21,5 C 17,2 C 53 % 1025,7 hPa 0,0 l/m 2 min 0 min 462 W/m 14,6 km/h (3 Bft)
10.05.2015 16:14 21,6 C 17,2 C 53 % 1025,7 hPa 0,0 l/m 2 min 0 min 591 W/m 14,6 km/h (3 Bft)
10.05.2015 16:16 21,6 C 17,2 C 51 % 1025,7 hPa 0,0 l/m 2 min 0 min 617 W/m 20,9 km/h (4 Bft)
10.05.2015 16:18 21,5 C 17,2 C 51 % 1025,7 hPa 0,0 l/m 2 min 0 min 592 W/m 12,6 km/h (3 Bft)
10.05.2015 16:20 21,4 C 17,2 C 51 % 1025,6 hPa 0,0 l/m 2 min 0 min 598 W/m 12,6 km/h (3 Bft)
10.05.2015 16:22 21,4 C 17,2 C 51 % 1025,6 hPa 0,0 l/m 2 min 0 min 613 W/m 12,6 km/h (3 Bft)
10.05.2015 16:24 21,4 C 17,2 C 50 % 1025,5 hPa 0,0 l/m 2 min 0 min 630 W/m 8,4 km/h (2 Bft)
10.05.2015 16:26 21,4 C 17,2 C 53 % 1025,5 hPa 0,0 l/m 2 min 0 min 630 W/m 12,6 km/h (3 Bft)
10.05.2015 16:28 21,5 C 17,2 C 51 % 1025,5 hPa 0,0 l/m 2 min 0 min 623 W/m 12,6 km/h (3 Bft)
10.05.2015 16:30 21,6 C 17,2 C 50 % 1025,4 hPa 0,0 l/m 2 min 0 min 616 W/m 8,4 km/h (2 Bft)
10.05.2015 16:32 21,6 C 17,2 C 51 % 1025,4 hPa 0,0 l/m 2 min 0 min 609 W/m 8,4 km/h (2 Bft)
10.05.2015 16:34 21,7 C 17,2 C 51 % 1025,4 hPa 0,0 l/m 2 min 0 min 622 W/m 16,7 km/h (3 Bft)
10.05.2015 16:36 21,7 C 17,2 C 51 % 1025,4 hPa 0,0 l/m 2 min 0 min 602 W/m 14,6 km/h (3 Bft)
10.05.2015 16:38 21,7 C 17,2 C 50 % 1025,4 hPa 0,0 l/m 2 min 0 min 589 W/m 14,6 km/h (3 Bft)
10.05.2015 16:40 21,7 C 17,2 C 49 % 1025,4 hPa 0,0 l/m 2 min 0 min 603 W/m 14,6 km/h (3 Bft)
10.05.2015 16:42 21,7 C 17,2 C 49 % 1025,4 hPa 0,0 l/m 2 min 0 min 579 W/m 6,3 km/h (2 Bft)
10.05.2015 16:44 21,6 C 17,2 C 49 % 1025,4 hPa 0,0 l/m 2 min 0 min 537 W/m 4,2 km/h (1 Bft)
10.05.2015 16:46 21,6 C 17,2 C 49 % 1025,4 hPa 0,0 l/m 2 min 0 min 532 W/m 16,7 km/h (3 Bft)
10.05.2015 16:48 21,6 C 17,2 C 50 % 1025,5 hPa 0,0 l/m 2 min 0 min 544 W/m 20,9 km/h (4 Bft)
10.05.2015 16:50 21,6 C 17,2 C 49 % 1025,5 hPa 0,0 l/m 2 min 0 min 545 W/m 18,8 km/h (3 Bft)
10.05.2015 16:52 21,5 C 16,7 C 50 % 1025,5 hPa 0,0 l/m 2 min 0 min 553 W/m 12,6 km/h (3 Bft)
10.05.2015 16:54 21,5 C 16,7 C 51 % 1025,4 hPa 0,0 l/m 2 min 0 min 545 W/m 12,6 km/h (3 Bft)
10.05.2015 16:56 21,6 C 17,2 C 51 % 1025,4 hPa 0,0 l/m 2 min 0 min 538 W/m 14,6 km/h (3 Bft)
10.05.2015 16:58 21,6 C 17,2 C 51 % 1025,4 hPa 0,0 l/m 2 min 0 min 532 W/m 14,6 km/h (3 Bft)
10.05.2015 17:00 21,6 C 17,2 C 52 % 1025,5 hPa 0,0 l/m 2 min 0 min 516 W/m 14,6 km/h (3 Bft)
10.05.2015 17:02 21,6 C 17,2 C 51 % 1025,4 hPa 0,0 l/m 2 min 0 min 498 W/m 14,6 km/h (3 Bft)
10.05.2015 17:04 21,6 C 17,2 C 50 % 1025,4 hPa 0,0 l/m 2 min 0 min 484 W/m 10,5 km/h (2 Bft)
10.05.2015 17:06 21,6 C 17,2 C 50 % 1025,4 hPa 0,0 l/m 2 min 0 min 455 W/m 10,5 km/h (2 Bft)
10.05.2015 17:08 21,6 C 17,2 C 51 % 1025,4 hPa 0,0 l/m 2 min 0 min 416 W/m 10,5 km/h (2 Bft)
10.05.2015 17:10 21,6 C 17,2 C 51 % 1025,4 hPa 0,0 l/m 2 min 0 min 392 W/m 10,5 km/h (2 Bft)
10.05.2015 17:12 21,6 C 17,2 C 50 % 1025,4 hPa 0,0 l/m 2 min 0 min 364 W/m 12,6 km/h (3 Bft)
10.05.2015 17:14 21,5 C 16,7 C 50 % 1025,4 hPa 0,0 l/m 2 min 0 min 371 W/m 10,5 km/h (2 Bft)
10.05.2015 17:16 21,5 C 16,7 C 49 % 1025,4 hPa 0,0 l/m 2 min 0 min 387 W/m 6,3 km/h (2 Bft)
10.05.2015 17:18 21,4 C 16,7 C 49 % 1025,3 hPa 0,0 l/m 2 min 0 min 403 W/m 6,3 km/h (2 Bft)
10.05.2015 17:20 21,4 C 16,7 C 51 % 1025,3 hPa 0,0 l/m 2 min 0 min 431 W/m 10,5 km/h (2 Bft)
10.05.2015 17:22 21,4 C 16,7 C 50 % 1025,3 hPa 0,0 l/m 2 min 0 min 434 W/m 10,5 km/h (2 Bft)
10.05.2015 17:24 21,3 C 16,7 C 50 % 1025,2 hPa 0,0 l/m 2 min 0 min 451 W/m 10,5 km/h (2 Bft)
10.05.2015 17:26 21,3 C 16,7 C 49 % 1025,2 hPa 0,0 l/m 2 min 0 min 441 W/m 14,6 km/h (3 Bft)
10.05.2015 17:28 21,3 C 16,7 C 50 % 1025,2 hPa 0,0 l/m 2 min 0 min 456 W/m 8,4 km/h (2 Bft)
10.05.2015 17:30 21,2 C 16,7 C 49 % 1025,2 hPa 0,0 l/m 2 min 0 min 461 W/m 12,6 km/h (3 Bft)
10.05.2015 17:32 21,2 C 16,7 C 50 % 1025,1 hPa 0,0 l/m 2 min 0 min 446 W/m 6,3 km/h (2 Bft)
10.05.2015 17:34 21,2 C 16,7 C 50 % 1025,1 hPa 0,0 l/m 2 min 0 min 446 W/m 10,5 km/h (2 Bft)
10.05.2015 17:36 21,2 C 16,7 C 50 % 1025,0 hPa 0,0 l/m 2 min 0 min 435 W/m 10,5 km/h (2 Bft)
10.05.2015 17:38 21,2 C 16,7 C 50 % 1025,0 hPa 0,0 l/m 2 min 0 min 404 W/m 10,5 km/h (2 Bft)
10.05.2015 17:40 21,1 C 16,7 C 51 % 1024,9 hPa 0,0 l/m 2 min 0 min 375 W/m 10,5 km/h (2 Bft)
10.05.2015 17:42 21,1 C 16,7 C 50 % 1024,9 hPa 0,0 l/m 2 min 0 min 360 W/m 12,6 km/h (3 Bft)
10.05.2015 17:44 21,1 C 16,7 C 50 % 1024,9 hPa 0,0 l/m 2 min 0 min 350 W/m 8,4 km/h (2 Bft)
10.05.2015 17:46 21,0 C 16,7 C 49 % 1024,8 hPa 0,0 l/m 2 min 0 min 364 W/m 10,5 km/h (2 Bft)
10.05.2015 17:48 21,0 C 16,1 C 50 % 1024,9 hPa 0,0 l/m 2 min 0 min 383 W/m 8,4 km/h (2 Bft)
10.05.2015 17:50 21,0 C 16,1 C 51 % 1024,9 hPa 0,0 l/m 2 min 0 min 375 W/m 14,6 km/h (3 Bft)
10.05.2015 17:52 20,9 C 16,1 C 51 % 1024,8 hPa 0,0 l/m 2 min 0 min 367 W/m 16,7 km/h (3 Bft)
10.05.2015 17:54 20,9 C 16,1 C 51 % 1024,8 hPa 0,0 l/m 2 min 0 min 368 W/m 10,5 km/h (2 Bft)
10.05.2015 17:56 20,8 C 16,1 C 51 % 1024,8 hPa 0,0 l/m 2 min 0 min 337 W/m 10,5 km/h (2 Bft)
10.05.2015 17:58 20,8 C 16,1 C 51 % 1024,8 hPa 0,0 l/m 2 min 0 min 340 W/m 14,6 km/h (3 Bft)
10.05.2015 18:00 20,7 C 16,1 C 51 % 1024,7 hPa 0,0 l/m 2 min 0 min 354 W/m 20,9 km/h (4 Bft)
10.05.2015 18:02 20,7 C 16,1 C 51 % 1024,6 hPa 0,0 l/m 2 min 0 min 342 W/m 10,5 km/h (2 Bft)
10.05.2015 18:06 20,6 C 16,1 C 51 % 1024,6 hPa 0,0 l/m 2 min 0 min 341 W/m 10,5 km/h (2 Bft)
10.05.2015 18:08 20,5 C 16,1 C 52 % 1024,6 hPa 0,0 l/m 2 min 0 min 311 W/m 10,5 km/h (2 Bft)
10.05.2015 18:10 20,4 C 16,1 C 52 % 1024,4 hPa 0,0 l/m 2 min 0 min 243 W/m 10,5 km/h (2 Bft)
10.05.2015 18:12 20,4 C 16,1 C 53 % 1024,5 hPa 0,0 l/m 2 min 0 min 234 W/m 14,6 km/h (3 Bft)
10.05.2015 18:14 20,4 C 16,1 C 53 % 1024,6 hPa 0,0 l/m 2 min 0 min 282 W/m 14,6 km/h (3 Bft)
10.05.2015 18:16 20,4 C 16,1 C 53 % 1024,5 hPa 0,0 l/m 2 min 0 min 369 W/m 18,8 km/h (3 Bft)
10.05.2015 18:18 20,3 C 16,1 C 53 % 1024,5 hPa 0,0 l/m 2 min 0 min 409 W/m 18,8 km/h (3 Bft)
10.05.2015 18:20 20,3 C 16,1 C 53 % 1024,5 hPa 0,0 l/m 2 min 0 min 395 W/m 20,9 km/h (4 Bft)
10.05.2015 18:22 20,3 C 16,1 C 53 % 1024,5 hPa 0,0 l/m 2 min 0 min 389 W/m 18,8 km/h (3 Bft)
10.05.2015 18:24 20,3 C 16,1 C 53 % 1024,6 hPa 0,0 l/m 2 min 0 min 367 W/m 18,8 km/h (3 Bft)
10.05.2015 18:26 20,3 C 16,1 C 52 % 1024,6 hPa 0,0 l/m 2 min 0 min 359 W/m 10,5 km/h (2 Bft)
10.05.2015 18:28 20,2 C 16,1 C 53 % 1024,5 hPa 0,0 l/m 2 min 0 min 350 W/m 18,8 km/h (3 Bft)
10.05.2015 18:30 20,2 C 16,1 C 53 % 1024,5 hPa 0,0 l/m 2 min 0 min 327 W/m 20,9 km/h (4 Bft)
10.05.2015 18:32 20,2 C 16,1 C 53 % 1024,5 hPa 0,0 l/m 2 min 0 min 314 W/m 14,6 km/h (3 Bft)
10.05.2015 18:34 20,2 C 16,1 C 54 % 1024,4 hPa 0,0 l/m 2 min 0 min 317 W/m 10,5 km/h (2 Bft)
10.05.2015 18:36 20,2 C 16,1 C 54 % 1024,4 hPa 0,0 l/m 2 min 0 min 280 W/m 20,9 km/h (4 Bft)
10.05.2015 18:38 20,1 C 16,1 C 54 % 1024,5 hPa 0,0 l/m 2 min 0 min 292 W/m 16,7 km/h (3 Bft)
10.05.2015 18:40 20,1 C 16,1 C 54 % 1024,4 hPa 0,0 l/m 2 min 0 min 307 W/m 18,8 km/h (3 Bft)
10.05.2015 18:42 20,1 C 16,1 C 54 % 1024,3 hPa 0,0 l/m 2 min 0 min 296 W/m 14,6 km/h (3 Bft)
10.05.2015 18:44 20,1 C 16,1 C 54 % 1024,4 hPa 0,0 l/m 2 min 0 min 283 W/m 14,6 km/h (3 Bft)
10.05.2015 18:46 20,0 C 16,1 C 54 % 1024,5 hPa 0,0 l/m 2 min 0 min 270 W/m 14,6 km/h (3 Bft)
10.05.2015 18:48 20,0 C 16,1 C 55 % 1024,5 hPa 0,0 l/m 2 min 0 min 261 W/m 10,5 km/h (2 Bft)
10.05.2015 18:50 19,9 C 16,1 C 55 % 1024,5 hPa 0,0 l/m 2 min 0 min 262 W/m 14,6 km/h (3 Bft)
10.05.2015 18:52 19,9 C 16,1 C 54 % 1024,5 hPa 0,0 l/m 2 min 0 min 275 W/m 14,6 km/h (3 Bft)
10.05.2015 18:54 19,9 C 15,6 C 55 % 1024,5 hPa 0,0 l/m 2 min 0 min 262 W/m 14,6 km/h (3 Bft)
10.05.2015 18:56 19,9 C 15,6 C 54 % 1024,5 hPa 0,0 l/m 2 min 0 min 243 W/m 12,6 km/h (3 Bft)
10.05.2015 18:58 19,9 C 15,6 C 55 % 1024,5 hPa 0,0 l/m 2 min 0 min 233 W/m 10,5 km/h (2 Bft)
10.05.2015 19:00 19,8 C 15,6 C 54 % 1024,4 hPa 0,0 l/m 2 min 0 min 209 W/m 8,4 km/h (2 Bft)
10.05.2015 19:02 19,8 C 15,6 C 55 % 1024,4 hPa 0,0 l/m 2 min 0 min 190 W/m 12,6 km/h (3 Bft)
10.05.2015 19:04 19,8 C 15,6 C 55 % 1024,4 hPa 0,0 l/m 2 min 0 min 217 W/m 8,4 km/h (2 Bft)
10.05.2015 19:06 19,8 C 15,6 C 55 % 1024,4 hPa 0,0 l/m 2 min 0 min 202 W/m 20,9 km/h (4 Bft)
10.05.2015 19:08 19,8 C 15,6 C 55 % 1024,4 hPa 0,0 l/m 2 min 0 min 177 W/m 18,8 km/h (3 Bft)
10.05.2015 19:10 19,7 C 15,6 C 55 % 1024,4 hPa 0,0 l/m 2 min 0 min 174 W/m 18,8 km/h (3 Bft)
10.05.2015 19:12 19,7 C 15,6 C 55 % 1024,4 hPa 0,0 l/m 2 min 0 min 173 W/m 10,5 km/h (2 Bft)
10.05.2015 19:14 19,7 C 15,6 C 55 % 1024,3 hPa 0,0 l/m 2 min 0 min 180 W/m 12,6 km/h (3 Bft)
10.05.2015 19:16 19,6 C 15,6 C 56 % 1024,3 hPa 0,0 l/m 2 min 0 min 191 W/m 10,5 km/h (2 Bft)
10.05.2015 19:18 19,6 C 15,6 C 56 % 1024,3 hPa 0,0 l/m 2 min 0 min 191 W/m 10,5 km/h (2 Bft)
10.05.2015 19:20 19,6 C 15,6 C 55 % 1024,3 hPa 0,0 l/m 2 min 0 min 181 W/m 18,8 km/h (3 Bft)
10.05.2015 19:22 19,6 C 15,6 C 56 % 1024,2 hPa 0,0 l/m 2 min 0 min 177 W/m 10,5 km/h (2 Bft)
10.05.2015 19:24 19,5 C 15,6 C 56 % 1024,3 hPa 0,0 l/m 2 min 0 min 175 W/m 14,6 km/h (3 Bft)
10.05.2015 19:26 19,5 C 15,6 C 57 % 1024,2 hPa 0,0 l/m 2 min 0 min 164 W/m 14,6 km/h (3 Bft)
10.05.2015 19:28 19,5 C 15,6 C 57 % 1024,3 hPa 0,0 l/m 2 min 0 min 158 W/m 8,4 km/h (2 Bft)
10.05.2015 19:30 19,4 C 15,0 C 57 % 1024,3 hPa 0,0 l/m 2 min 0 min 162 W/m 14,6 km/h (3 Bft)
10.05.2015 19:32 19,4 C 15,0 C 57 % 1024,3 hPa 0,0 l/m 2 min 0 min 153 W/m 18,8 km/h (3 Bft)
10.05.2015 19:34 19,4 C 15,0 C 57 % 1024,2 hPa 0,0 l/m 2 min 0 min 132 W/m 12,6 km/h (3 Bft)
10.05.2015 19:36 19,4 C 15,0 C 57 % 1024,2 hPa 0,0 l/m 2 min 0 min 122 W/m 14,6 km/h (3 Bft)
10.05.2015 19:38 19,4 C 15,0 C 57 % 1024,2 hPa 0,0 l/m 0 min 0 min 104 W/m 14,6 km/h (3 Bft)
10.05.2015 19:40 19,4 C 15,0 C 57 % 1024,2 hPa 0,0 l/m 0 min 0 min 97 W/m 10,5 km/h (2 Bft)
10.05.2015 19:42 19,3 C 15,0 C 57 % 1024,2 hPa 0,0 l/m 2 min 0 min 107 W/m 16,7 km/h (3 Bft)
10.05.2015 19:44 19,3 C 15,0 C 57 % 1024,3 hPa 0,0 l/m 2 min 0 min 113 W/m 14,6 km/h (3 Bft)
10.05.2015 19:46 19,2 C 15,0 C 57 % 1024,3 hPa 0,0 l/m 2 min 0 min 109 W/m 8,4 km/h (2 Bft)
10.05.2015 19:48 19,2 C 15,0 C 58 % 1024,3 hPa 0,0 l/m 2 min 0 min 106 W/m 10,5 km/h (2 Bft)
10.05.2015 19:50 19,2 C 15,0 C 58 % 1024,2 hPa 0,0 l/m 2 min 0 min 100 W/m 10,5 km/h (2 Bft)
10.05.2015 19:52 19,2 C 15,0 C 58 % 1024,2 hPa 0,0 l/m 2 min 0 min 90 W/m 14,6 km/h (3 Bft)
10.05.2015 19:54 19,1 C 15,0 C 58 % 1024,2 hPa 0,0 l/m 2 min 0 min 88 W/m 14,6 km/h (3 Bft)
10.05.2015 19:56 19,1 C 15,0 C 58 % 1024,2 hPa 0,0 l/m 2 min 0 min 89 W/m 8,4 km/h (2 Bft)
10.05.2015 19:58 19,1 C 15,0 C 58 % 1024,2 hPa 0,0 l/m 2 min 0 min 85 W/m 8,4 km/h (2 Bft)
10.05.2015 20:00 19,1 C 15,0 C 58 % 1024,3 hPa 0,0 l/m 2 min 0 min 85 W/m 8,4 km/h (2 Bft)
10.05.2015 20:02 19,0 C 15,0 C 59 % 1024,3 hPa 0,0 l/m 2 min 0 min 79 W/m 10,5 km/h (2 Bft)
10.05.2015 20:04 18,9 C 15,0 C 59 % 1024,3 hPa 0,0 l/m 2 min 0 min 75 W/m 10,5 km/h (2 Bft)
10.05.2015 20:06 18,9 C 15,0 C 59 % 1024,4 hPa 0,0 l/m 0 min 0 min 70 W/m 10,5 km/h (2 Bft)
10.05.2015 20:08 18,9 C 15,0 C 59 % 1024,4 hPa 0,0 l/m 0 min 0 min 64 W/m 10,5 km/h (2 Bft)
10.05.2015 20:10 18,9 C 15,0 C 59 % 1024,3 hPa 0,0 l/m 0 min 0 min 61 W/m 6,3 km/h (2 Bft)
10.05.2015 20:12 18,9 C 14,4 C 59 % 1024,3 hPa 0,0 l/m 0 min 0 min 61 W/m 6,3 km/h (2 Bft)
10.05.2015 20:14 18,8 C 14,4 C 59 % 1024,3 hPa 0,0 l/m 0 min 0 min 58 W/m 6,3 km/h (2 Bft)
10.05.2015 20:16 18,8 C 14,4 C 60 % 1024,3 hPa 0,0 l/m 0 min 0 min 53 W/m 4,2 km/h (1 Bft)
10.05.2015 20:18 18,8 C 14,4 C 60 % 1024,3 hPa 0,0 l/m 0 min 0 min 48 W/m 6,3 km/h (2 Bft)
10.05.2015 20:20 18,7 C 14,4 C 60 % 1024,3 hPa 0,0 l/m 0 min 0 min 45 W/m 6,3 km/h (2 Bft)
10.05.2015 20:22 18,7 C 14,4 C 60 % 1024,2 hPa 0,0 l/m 0 min 0 min 44 W/m 4,2 km/h (1 Bft)
10.05.2015 20:24 18,7 C 14,4 C 60 % 1024,3 hPa 0,0 l/m 0 min 0 min 43 W/m 4,2 km/h (1 Bft)
10.05.2015 20:26 18,7 C 14,4 C 60 % 1024,2 hPa 0,0 l/m 0 min 0 min 40 W/m 4,2 km/h (1 Bft)
10.05.2015 20:28 18,6 C 14,4 C 60 % 1024,3 hPa 0,0 l/m 0 min 0 min 39 W/m 6,3 km/h (2 Bft)
10.05.2015 20:30 18,6 C 14,4 C 60 % 1024,2 hPa 0,0 l/m 0 min 0 min 37 W/m 6,3 km/h (2 Bft)
10.05.2015 20:32 18,6 C 14,4 C 60 % 1024,3 hPa 0,0 l/m 0 min 0 min 33 W/m 8,4 km/h (2 Bft)
10.05.2015 20:34 18,5 C 13,9 C 61 % 1024,3 hPa 0,0 l/m 0 min 0 min 32 W/m 4,2 km/h (1 Bft)
10.05.2015 20:36 18,4 C 13,9 C 61 % 1024,3 hPa 0,0 l/m 0 min 0 min 31 W/m 6,3 km/h (2 Bft)
10.05.2015 20:38 18,4 C 13,9 C 61 % 1024,3 hPa 0,0 l/m 0 min 0 min 28 W/m 6,3 km/h (2 Bft)
10.05.2015 20:40 18,4 C 13,9 C 62 % 1024,3 hPa 0,0 l/m 0 min 0 min 25 W/m 6,3 km/h (2 Bft)
10.05.2015 20:42 18,4 C 13,9 C 62 % 1024,3 hPa 0,0 l/m 0 min 0 min 24 W/m 4,2 km/h (1 Bft)
10.05.2015 20:44 18,3 C 13,9 C 62 % 1024,3 hPa 0,0 l/m 0 min 0 min 21 W/m 8,4 km/h (2 Bft)
10.05.2015 20:46 18,3 C 13,9 C 62 % 1024,3 hPa 0,0 l/m 0 min 0 min 19 W/m 8,4 km/h (2 Bft)
10.05.2015 20:48 18,2 C 13,9 C 62 % 1024,3 hPa 0,0 l/m 0 min 0 min 17 W/m 4,2 km/h (1 Bft)
10.05.2015 20:50 18,2 C 13,9 C 62 % 1024,3 hPa 0,0 l/m 0 min 0 min 16 W/m 4,2 km/h (1 Bft)
10.05.2015 20:52 18,2 C 13,9 C 62 % 1024,3 hPa 0,0 l/m 0 min 0 min 14 W/m 6,3 km/h (2 Bft)
10.05.2015 20:54 18,1 C 13,9 C 62 % 1024,3 hPa 0,0 l/m 0 min 0 min 13 W/m 4,2 km/h (1 Bft)
10.05.2015 20:56 18,1 C 13,3 C 63 % 1024,3 hPa 0,0 l/m 0 min 0 min 12 W/m 2,1 km/h (1 Bft)
10.05.2015 20:58 18,1 C 13,3 C 62 % 1024,3 hPa 0,0 l/m 0 min 0 min 11 W/m 4,2 km/h (1 Bft)
10.05.2015 21:00 18,0 C 13,3 C 63 % 1024,3 hPa 0,0 l/m 0 min 0 min 9 W/m 4,2 km/h (1 Bft)
10.05.2015 21:02 17,9 C 13,3 C 63 % 1024,3 hPa 0,0 l/m 0 min 0 min 7 W/m 4,2 km/h (1 Bft)
10.05.2015 21:04 17,9 C 13,3 C 63 % 1024,3 hPa 0,0 l/m 0 min 0 min 7 W/m 4,2 km/h (1 Bft)
10.05.2015 21:06 17,8 C 13,3 C 63 % 1024,3 hPa 0,0 l/m 0 min 0 min 5 W/m 4,2 km/h (1 Bft)
10.05.2015 21:08 17,8 C 13,3 C 63 % 1024,3 hPa 0,0 l/m 0 min 0 min 5 W/m 4,2 km/h (1 Bft)
10.05.2015 21:10 17,7 C 13,3 C 64 % 1024,3 hPa 0,0 l/m 0 min 0 min 2 W/m 4,2 km/h (1 Bft)
10.05.2015 21:12 17,7 C 13,3 C 64 % 1024,4 hPa 0,0 l/m 0 min 0 min 0 W/m 4,2 km/h (1 Bft)
10.05.2015 21:14 17,6 C 12,8 C 64 % 1024,3 hPa 0,0 l/m 0 min 0 min 0 W/m 4,2 km/h (1 Bft)
10.05.2015 21:16 17,6 C 12,8 C 64 % 1024,3 hPa 0,0 l/m 0 min 0 min 0 W/m 4,2 km/h (1 Bft)
10.05.2015 21:18 17,5 C 12,8 C 64 % 1024,4 hPa 0,0 l/m 0 min 0 min 0 W/m 2,1 km/h (1 Bft)
10.05.2015 21:20 17,4 C 12,8 C 64 % 1024,4 hPa 0,0 l/m 0 min 0 min 0 W/m 2,1 km/h (1 Bft)
10.05.2015 21:22 17,4 C 12,8 C 65 % 1024,5 hPa 0,0 l/m 0 min 0 min 0 W/m 2,1 km/h (1 Bft)
10.05.2015 21:24 17,3 C 12,8 C 65 % 1024,4 hPa 0,0 l/m 0 min 0 min 0 W/m 2,1 km/h (1 Bft)
10.05.2015 21:26 17,2 C 12,8 C 65 % 1024,5 hPa 0,0 l/m 0 min 0 min 0 W/m 4,2 km/h (1 Bft)
10.05.2015 21:28 17,2 C 12,8 C 65 % 1024,5 hPa 0,0 l/m 0 min 0 min 0 W/m 4,2 km/h (1 Bft)
10.05.2015 21:30 17,1 C 12,8 C 66 % 1024,4 hPa 0,0 l/m 0 min 0 min 0 W/m 4,2 km/h (1 Bft)
10.05.2015 21:32 17,0 C 12,8 C 66 % 1024,4 hPa 0,0 l/m 0 min 0 min 0 W/m 6,3 km/h (2 Bft)
10.05.2015 21:34 16,9 C 12,8 C 66 % 1024,3 hPa 0,0 l/m 0 min 0 min 0 W/m 6,3 km/h (2 Bft)
10.05.2015 21:36 16,9 C 12,8 C 67 % 1024,4 hPa 0,0 l/m 0 min 0 min 0 W/m 6,3 km/h (2 Bft)
10.05.2015 21:38 16,8 C 12,8 C 67 % 1024,4 hPa 0,0 l/m 0 min 0 min 0 W/m 4,2 km/h (1 Bft)
10.05.2015 21:40 16,8 C 12,8 C 67 % 1024,4 hPa 0,0 l/m 0 min 0 min 0 W/m 4,2 km/h (1 Bft)
10.05.2015 21:42 16,7 C 12,8 C 67 % 1024,5 hPa 0,0 l/m 0 min 0 min 0 W/m 4,2 km/h (1 Bft)
10.05.2015 21:44 16,6 C 12,2 C 67 % 1024,5 hPa 0,0 l/m 0 min 0 min 0 W/m 2,1 km/h (1 Bft)
10.05.2015 21:46 16,6 C 12,2 C 67 % 1024,4 hPa 0,0 l/m 0 min 0 min 0 W/m 2,1 km/h (1 Bft)
10.05.2015 21:48 16,5 C 12,2 C 67 % 1024,4 hPa 0,0 l/m 0 min 0 min 0 W/m 2,1 km/h (1 Bft)
10.05.2015 21:50 16,4 C 12,2 C 67 % 1024,5 hPa 0,0 l/m 0 min 0 min 0 W/m 2,1 km/h (1 Bft)
10.05.2015 21:52 16,4 C 12,2 C 67 % 1024,4 hPa 0,0 l/m 0 min 0 min 0 W/m 0,0 km/h (0 Bft)
10.05.2015 21:54 16,3 C 12,2 C 67 % 1024,5 hPa 0,0 l/m 0 min 0 min 0 W/m 0,0 km/h (0 Bft)
10.05.2015 21:56 16,2 C 12,2 C 67 % 1024,4 hPa 0,0 l/m 0 min 0 min 0 W/m 0,0 km/h (0 Bft)
10.05.2015 21:58 16,2 C 12,2 C 68 % 1024,4 hPa 0,0 l/m 0 min 0 min 0 W/m 0,0 km/h (0 Bft)
10.05.2015 22:00 16,1 C 12,2 C 68 % 1024,5 hPa 0,0 l/m 0 min 0 min 0 W/m 0,0 km/h (0 Bft)
10.05.2015 22:02 16,1 C 12,2 C 68 % 1024,3 hPa 0,0 l/m 0 min 0 min 0 W/m 4,2 km/h (1 Bft)
10.05.2015 22:04 16,0 C 12,2 C 69 % 1024,4 hPa 0,0 l/m 0 min 0 min 0 W/m 2,1 km/h (1 Bft)
10.05.2015 22:06 15,9 C 12,2 C 69 % 1024,3 hPa 0,0 l/m 0 min 0 min 0 W/m 2,1 km/h (1 Bft)
10.05.2015 22:08 15,8 C 12,2 C 69 % 1024,3 hPa 0,0 l/m 0 min 0 min 0 W/m 2,1 km/h (1 Bft)
10.05.2015 22:10 15,8 C 12,2 C 70 % 1024,3 hPa 0,0 l/m 0 min 0 min 0 W/m 2,1 km/h (1 Bft)
10.05.2015 22:12 15,7 C 12,2 C 70 % 1024,3 hPa 0,0 l/m 0 min 0 min 0 W/m 2,1 km/h (1 Bft)
10.05.2015 22:14 15,7 C 12,2 C 70 % 1024,3 hPa 0,0 l/m 0 min 0 min 0 W/m 4,2 km/h (1 Bft)
10.05.2015 22:16 15,6 C 12,2 C 70 % 1024,2 hPa 0,0 l/m 0 min 0 min 0 W/m 2,1 km/h (1 Bft)
10.05.2015 22:18 15,5 C 12,2 C 71 % 1024,2 hPa 0,0 l/m 0 min 0 min 0 W/m 4,2 km/h (1 Bft)
10.05.2015 22:20 15,4 C 12,2 C 71 % 1024,1 hPa 0,0 l/m 0 min 0 min 0 W/m 4,2 km/h (1 Bft)
10.05.2015 22:22 15,4 C 11,7 C 71 % 1024,1 hPa 0,0 l/m 0 min 0 min 0 W/m 4,2 km/h (1 Bft)
10.05.2015 22:24 15,3 C 11,7 C 71 % 1024,1 hPa 0,0 l/m 0 min 0 min 0 W/m 4,2 km/h (1 Bft)
10.05.2015 22:26 15,2 C 11,7 C 72 % 1024,1 hPa 0,0 l/m 0 min 0 min 0 W/m 6,3 km/h (2 Bft)
10.05.2015 22:28 15,2 C 11,7 C 72 % 1024,1 hPa 0,0 l/m 0 min 0 min 0 W/m 6,3 km/h (2 Bft)
10.05.2015 22:30 15,1 C 11,7 C 72 % 1024,1 hPa 0,0 l/m 0 min 0 min 0 W/m 6,3 km/h (2 Bft)
10.05.2015 22:32 15,1 C 11,7 C 72 % 1024,1 hPa 0,0 l/m 0 min 0 min 0 W/m 6,3 km/h (2 Bft)
10.05.2015 22:34 15,0 C 11,7 C 72 % 1024,1 hPa 0,0 l/m 0 min 0 min 0 W/m 4,2 km/h (1 Bft)
10.05.2015 22:36 14,9 C 11,7 C 72 % 1024,1 hPa 0,0 l/m 0 min 0 min 0 W/m 2,1 km/h (1 Bft)
10.05.2015 22:38 14,8 C 11,7 C 72 % 1024,0 hPa 0,0 l/m 0 min 0 min 0 W/m 4,2 km/h (1 Bft)
10.05.2015 22:40 14,8 C 11,7 C 73 % 1024,1 hPa 0,0 l/m 0 min 0 min 0 W/m 2,1 km/h (1 Bft)
10.05.2015 22:42 14,7 C 11,7 C 73 % 1024,0 hPa 0,0 l/m 0 min 0 min 0 W/m 2,1 km/h (1 Bft)
10.05.2015 22:44 14,7 C 11,7 C 73 % 1024,0 hPa 0,0 l/m 0 min 0 min 0 W/m 4,2 km/h (1 Bft)
10.05.2015 22:46 14,6 C 11,7 C 73 % 1024,0 hPa 0,0 l/m 0 min 0 min 0 W/m 4,2 km/h (1 Bft)
10.05.2015 22:48 14,6 C 11,7 C 73 % 1023,9 hPa 0,0 l/m 0 min 0 min 0 W/m 4,2 km/h (1 Bft)
10.05.2015 22:50 14,5 C 11,7 C 73 % 1023,9 hPa 0,0 l/m 0 min 0 min 0 W/m 2,1 km/h (1 Bft)
10.05.2015 22:52 14,5 C 11,7 C 74 % 1023,9 hPa 0,0 l/m 0 min 0 min 0 W/m 2,1 km/h (1 Bft)
10.05.2015 22:54 14,4 C 11,7 C 74 % 1023,9 hPa 0,0 l/m 0 min 0 min 0 W/m 4,2 km/h (1 Bft)
10.05.2015 22:56 14,4 C 11,7 C 75 % 1023,9 hPa 0,0 l/m 0 min 0 min 0 W/m 4,2 km/h (1 Bft)
10.05.2015 22:58 14,3 C 11,7 C 75 % 1023,9 hPa 0,0 l/m 0 min 0 min 0 W/m 6,3 km/h (2 Bft)
10.05.2015 23:00 14,3 C 11,7 C 75 % 1023,8 hPa 0,0 l/m 0 min 0 min 0 W/m 6,3 km/h (2 Bft)
10.05.2015 23:02 14,2 C 11,7 C 75 % 1023,8 hPa 0,0 l/m 0 min 0 min 0 W/m 4,2 km/h (1 Bft)
10.05.2015 23:04 14,2 C 11,7 C 75 % 1023,8 hPa 0,0 l/m 0 min 0 min 0 W/m 4,2 km/h (1 Bft)
10.05.2015 23:06 14,2 C 11,7 C 75 % 1023,8 hPa 0,0 l/m 0 min 0 min 0 W/m 4,2 km/h (1 Bft)
10.05.2015 23:08 14,2 C 11,7 C 75 % 1023,8 hPa 0,0 l/m 0 min 0 min 0 W/m 6,3 km/h (2 Bft)
10.05.2015 23:10 14,2 C 11,7 C 75 % 1023,8 hPa 0,0 l/m 0 min 0 min 0 W/m 4,2 km/h (1 Bft)
10.05.2015 23:12 14,2 C 11,7 C 75 % 1023,8 hPa 0,0 l/m 0 min 0 min 0 W/m 4,2 km/h (1 Bft)
10.05.2015 23:14 14,1 C 11,1 C 76 % 1023,8 hPa 0,0 l/m 0 min 0 min 0 W/m 4,2 km/h (1 Bft)
10.05.2015 23:16 14,1 C 11,1 C 76 % 1023,8 hPa 0,0 l/m 0 min 0 min 0 W/m 4,2 km/h (1 Bft)
10.05.2015 23:18 14,0 C 11,1 C 76 % 1023,8 hPa 0,0 l/m 0 min 0 min 0 W/m 4,2 km/h (1 Bft)
10.05.2015 23:20 13,9 C 11,1 C 76 % 1023,7 hPa 0,0 l/m 0 min 0 min 0 W/m 6,3 km/h (2 Bft)
10.05.2015 23:22 13,9 C 11,1 C 76 % 1023,7 hPa 0,0 l/m 0 min 0 min 0 W/m 6,3 km/h (2 Bft)
10.05.2015 23:24 13,9 C 11,1 C 76 % 1023,7 hPa 0,0 l/m 0 min 0 min 0 W/m 4,2 km/h (1 Bft)
10.05.2015 23:26 13,8 C 11,1 C 76 % 1023,7 hPa 0,0 l/m 0 min 0 min 0 W/m 6,3 km/h (2 Bft)
10.05.2015 23:28 13,8 C 11,1 C 76 % 1023,7 hPa 0,0 l/m 0 min 0 min 0 W/m 6,3 km/h (2 Bft)
10.05.2015 23:30 13,8 C 11,1 C 76 % 1023,7 hPa 0,0 l/m 0 min 0 min 0 W/m 6,3 km/h (2 Bft)
10.05.2015 23:32 13,7 C 11,1 C 76 % 1023,7 hPa 0,0 l/m 0 min 0 min 0 W/m 6,3 km/h (2 Bft)
10.05.2015 23:34 13,7 C 11,1 C 76 % 1023,7 hPa 0,0 l/m 0 min 0 min 0 W/m 6,3 km/h (2 Bft)
10.05.2015 23:36 13,7 C 11,1 C 76 % 1023,7 hPa 0,0 l/m 0 min 0 min 0 W/m 8,4 km/h (2 Bft)
10.05.2015 23:38 13,7 C 11,1 C 76 % 1023,6 hPa 0,0 l/m 0 min 0 min 0 W/m 6,3 km/h (2 Bft)
10.05.2015 23:40 13,6 C 11,1 C 76 % 1023,6 hPa 0,0 l/m 0 min 0 min 0 W/m 8,4 km/h (2 Bft)
10.05.2015 23:42 13,6 C 11,1 C 76 % 1023,6 hPa 0,0 l/m 0 min 0 min 0 W/m 6,3 km/h (2 Bft)
10.05.2015 23:44 13,6 C 11,1 C 77 % 1023,6 hPa 0,0 l/m 0 min 0 min 0 W/m 6,3 km/h (2 Bft)
10.05.2015 23:46 13,5 C 11,1 C 76 % 1023,5 hPa 0,0 l/m 0 min 0 min 0 W/m 6,3 km/h (2 Bft)
10.05.2015 23:48 13,5 C 11,1 C 76 % 1023,6 hPa 0,0 l/m 0 min 0 min 0 W/m 6,3 km/h (2 Bft)
10.05.2015 23:50 13,4 C 11,1 C 76 % 1023,4 hPa 0,0 l/m 0 min 0 min 0 W/m 6,3 km/h (2 Bft)
10.05.2015 23:52 13,4 C 11,1 C 76 % 1023,4 hPa 0,0 l/m 0 min 0 min 0 W/m 6,3 km/h (2 Bft)
10.05.2015 23:54 13,4 C 11,1 C 77 % 1023,5 hPa 0,0 l/m 0 min 0 min 0 W/m 8,4 km/h (2 Bft)
10.05.2015 23:56 13,4 C 11,1 C 77 % 1023,5 hPa 0,0 l/m 0 min 0 min 0 W/m 8,4 km/h (2 Bft)
10.05.2015 23:58 13,4 C 11,1 C 77 % 1023,4 hPa 0,0 l/m 0 min 0 min 0 W/m 6,3 km/h (2 Bft)
_ Min-Zeit 06:48 05:44 15:52 00:00 - - - - 06:08
Minimum _ 8,9 C 8,9 C 49 % 1020,8 hPa - - - - 0,0 km/h (0 Bft)
_ Max-Zeit 16:34 13:06 07:50 11:48 00:00 06:14 00:00 13:08 01:06
Maximum _ 21,7 C 17,8 C 94 % 1027,1 hPa 0,0 l/m 2 min 0 min 965 W/m 25,1 km/h
W-SW (4 Bft)
Durchschnitt _ 15,2 C 12,9 C 72 % 1024,8 hPa #0,0 l/m #11:26 h #0 min. 387 W/m 9,4 km/h (2 Bft)
© 2015 W. Hausmann